KC5DAQ-22 Weather Reports


time (UTC)temp
F
wind
direction
speed
knots
gust
knots
rain 1hr
in
rain 24hr
in
rain mn
in
humidity
%
barometer
mb
20260831191702 95 49 4.3 7.8 0.00 0.00 0.00 57 1013.4
20260831191603 95 92 3.5 7.8 0.00 0.00 0.00 58 1013.3
20260831191502 95 99 0.9 5.2 0.00 0.00 0.00 58 1013.2
20260831191401 94 59 0.9 5.2 0.00 0.00 0.00 57 1013.3
20260831191302 94 59 0.9 5.2 0.00 0.00 0.00 57 1013.2
20260831191203 94 59 1.7 5.2 0.00 0.00 0.00 58 1013.3
20260831191102 94 59 2.6 5.2 0.00 0.00 0.00 56 1013.3
20260831191002 94 58 3.5 5.2 0.00 0.00 0.00 56 1013.4
20260831190902 94 58 3.5 5.2 0.00 0.00 0.00 56 1013.4
20260831190803 95 49 2.6 4.3 0.00 0.00 0.00 55 1013.4
20260831190702 95 23 1.7 3.5 0.00 0.00 0.00 56 1013.4
20260831190603 94 23 2.6 5.2 0.00 0.00 0.00 56 1013.5
20260831190504 94 23 1.7 5.2 0.00 0.00 0.00 57 1013.5
20260831190401 94 72 1.7 5.2 0.00 0.00 0.00 57 1013.5
20260831190302 94 72 1.7 6.1 0.00 0.00 0.00 56 1013.5
20260831190203 94 24 0.9 6.1 0.00 0.00 0.00 56 1013.6
20260831190003 94 24 0.9 10.4 0.00 0.00 0.00 58 1013.6
20260831185904 93 39 1.7 10.4 0.00 0.00 0.00 58 1013.7
20260831185803 93 39 3.5 10.4 0.00 0.00 0.00 57 1013.6
20260831185702 94 39 3.5 10.4 0.00 0.00 0.00 57 1013.7
20260831185603 94 61 3.5 10.4 0.00 0.00 0.00 57 1013.6
20260831185504 94 49 4.3 10.4 0.00 0.00 0.00 57 1013.6
20260831185401 94 51 5.2 10.4 0.00 0.00 0.00 57 1013.7
20260831185306 94 47 5.2 10.4 0.00 0.00 0.00 57 1013.7
20260831185204 95 58 6.1 10.4 0.00 0.00 0.00 57 1013.6
20260831185103 95 17 5.2 10.4 0.00 0.00 0.00 58 1013.6
20260831185003 95 103 1.7 6.1 0.00 0.00 0.00 58 1013.7
20260831184903 94 299 0.9 5.2 0.00 0.00 0.00 58 1013.6
20260831184803 95 299 1.7 5.2 0.00 0.00 0.00 57 1013.7
20260831184702 95 259 1.7 5.2 0.00 0.00 0.00 56 1013.7
20260831184603 95 259 3.5 5.2 0.00 0.00 0.00 57 1013.7
20260831184504 95 241 2.6 5.2 0.00 0.00 0.00 57 1013.7
20260831184403 95 213 1.7 4.3 0.00 0.00 0.00 57 1013.7
20260831184302 95 259 1.7 5.2 0.00 0.00 0.00 57 1013.7
20260831184203 95 268 1.7 7.8 0.00 0.00 0.00 57 1013.7
20260831184103 95 168 1.7 8.7 0.00 0.00 0.00 57 1013.7
20260831184004 96 99 1.7 9.6 0.00 0.00 0.00 57 1013.8
20260831183902 96 99 2.6 9.6 0.00 0.00 0.00 57 1013.7
20260831183803 96 134 2.6 9.6 0.00 0.00 0.00 57 1013.8
20260831183702 96 27 2.6 9.6 0.00 0.00 0.00 58 1013.8
20260831183602 95 85 2.6 9.6 0.00 0.00 0.00 58 1013.8
20260831183504 95 20 2.6 9.6 0.00 0.00 0.00 58 1013.8
20260831183403 95 48 4.3 9.6 0.00 0.00 0.00 57 1013.8
20260831183302 96 49 6.1 9.6 0.00 0.00 0.00 57 1013.8
20260831183201 96 76 7.0 9.6 0.00 0.00 0.00 57 1013.9
20260831183103 96 63 6.1 9.6 0.00 0.00 0.00 57 1013.8
20260831183002 96 52 4.3 7.8 0.00 0.00 0.00 56 1013.8
20260831182903 96 97 2.6 6.1 0.00 0.00 0.00 56 1013.8
20260831182803 96 31 1.7 6.1 0.00 0.00 0.00 56 1013.8
20260831182702 96 0 3.5 6.1 0.00 0.00 0.00 57 1013.8
20260831182602 96 0 4.3 6.1 0.00 0.00 0.00 57 1013.9
20260831182504 96 44 2.6 4.3 0.00 0.00 0.00 56 1013.9
20260831182402 96 18 1.7 3.5 0.00 0.00 0.00 57 1013.9
20260831182305 96 344 1.7 3.5 0.00 0.00 0.00 57 1014.0
20260831182203 96 341 1.7 3.5 0.00 0.00 0.00 57 1013.9
20260831182103 96 340 1.7 3.5 0.00 0.00 0.00 57 1013.9
20260831182003 96 348 1.7 3.5 0.00 0.00 0.00 57 1013.9
20260831181903 96 348 1.7 5.2 0.00 0.00 0.00 58 1014.0
20260831181803 96 347 1.7 6.1 0.00 0.00 0.00 57 1014.1
20260831181703 96 309 2.6 7.8 0.00 0.00 0.00 57 1014.0
20260831181601 96 281 1.7 8.7 0.00 0.00 0.00 58 1014.0
20260831181502 95 336 1.7 8.7 0.00 0.00 0.00 59 1014.0
20260831181403 95 4 0.9 8.7 0.00 0.00 0.00 59 1014.1
20260831181302 95 32 0.9 8.7 0.00 0.00 0.00 60 1014.1
20260831181202 94 37 1.7 8.7 0.00 0.00 0.00 61 1014.1
20260831181104 94 37 3.5 8.7 0.00 0.00 0.00 62 1014.1
20260831181003 93 35 5.2 8.7 0.00 0.00 0.00 62 1014.1
20260831180902 93 80 6.1 8.7 0.00 0.00 0.00 61 1014.2
20260831180803 93 82 5.2 8.7 0.00 0.00 0.00 62 1014.2
20260831180702 93 109 4.3 8.7 0.00 0.00 0.00 62 1014.2
20260831180602 93 79 5.2 8.7 0.00 0.00 0.00 62 1014.2
20260831180502 93 73 3.5 8.7 0.00 0.00 0.00 62 1014.2
20260831180401 93 52 3.5 8.7 0.00 0.00 0.00 62 1014.3
20260831180303 94 55 5.2 8.7 0.00 0.00 0.00 62 1014.4
20260831180202 94 63 6.1 8.7 0.00 0.00 0.00 62 1014.2
20260831180105 94 56 3.5 8.7 0.00 0.00 0.00 62 1014.3
20260831180003 94 0 0.9 6.1 0.00 0.00 0.00 61 1014.4
20260831175902 94 334 0.9 6.1 0.00 0.00 0.00 61 1014.3
20260831175803 94 334 1.7 6.1 0.00 0.00 0.00 61 1014.4
20260831175702 94 334 2.6 6.1 0.00 0.00 0.00 61 1014.3
20260831175603 94 333 2.6 6.1 0.00 0.00 0.00 61 1014.4
20260831175503 94 324 3.5 6.1 0.00 0.00 0.00 61 1014.3
20260831175403 94 20 2.6 6.1 0.00 0.00 0.00 63 1014.5
20260831175305 94 357 2.6 5.2 0.00 0.00 0.00 64 1014.4
20260831175202 93 86 3.5 5.2 0.00 0.00 0.00 63 1014.4
20260831175103 93 87 4.3 5.2 0.00 0.00 0.00 64 1014.4
20260831175003 93 72 3.5 5.2 0.00 0.00 0.00 64 1014.4
20260831174902 93 125 2.6 5.2 0.00 0.00 0.00 65 1014.4
20260831174802 93 73 1.7 5.2 0.00 0.00 0.00 66 1014.4
20260831174703 92 59 1.7 6.1 0.00 0.00 0.00 66 1014.4
20260831174603 92 59 2.6 6.1 0.00 0.00 0.00 66 1014.4
20260831174502 91 82 2.6 6.1 0.00 0.00 0.00 66 1014.5
20260831174402 91 82 5.2 6.1 0.00 0.00 0.00 67 1014.4
20260831174303 91 62 4.3 6.1 0.00 0.00 0.00 67 1014.5
20260831174203 91 62 4.3 6.1 0.00 0.00 0.00 67 1014.5
20260831174103 91 62 4.3 6.1 0.00 0.00 0.00 67 1014.5
20260831174004 91 62 4.3 6.1 0.00 0.00 0.00 67 1014.5
20260831173902 91 56 5.2 6.1 0.00 0.00 0.00 68 1014.5
20260831173802 91 83 4.3 6.1 0.00 0.00 0.00 68 1014.5
20260831173703 91 83 4.3 6.1 0.00 0.00 0.00 68 1014.5
20260831173603 90 58 4.3 6.1 0.00 0.00 0.00 67 1014.6
20260831173503 91 56 3.5 5.2 0.00 0.00 0.00 67 1014.6
20260831173402 91 55 3.5 5.2 0.00 0.00 0.00 67 1014.6
20260831173303 91 59 2.6 5.2 0.00 0.00 0.00 67 1014.6
20260831173201 91 61 1.7 5.2 0.00 0.00 0.00 67 1014.6
20260831173102 91 61 0.9 5.2 0.00 0.00 0.00 66 1014.6
20260831173004 91 61 0.9 5.2 0.00 0.00 0.00 67 1014.6
20260831172902 91 61 0.9 8.7 0.00 0.00 0.00 66 1014.6
20260831172803 91 61 0.9 8.7 0.00 0.00 0.00 66 1014.7
20260831172703 91 61 1.7 8.7 0.00 0.00 0.00 66 1014.7
20260831172602 91 61 2.6 8.7 0.00 0.00 0.00 66 1014.7
20260831172502 91 61 3.5 8.7 0.00 0.00 0.00 65 1014.7
20260831172402 92 59 2.6 8.7 0.00 0.00 0.00 65 1014.6
20260831172306 92 30 2.6 8.7 0.00 0.00 0.00 65 1014.7
20260831172203 92 28 3.5 8.7 0.00 0.00 0.00 64 1014.7
20260831172102 92 63 5.2 8.7 0.00 0.00 0.00 64 1014.7
20260831172003 92 32 6.1 8.7 0.00 0.00 0.00 64 1014.7
20260831171901 92 58 5.2 8.7 0.00 0.00 0.00 64 1014.7
20260831171803 92 86 3.5 8.7 0.00 0.00 0.00 64 1014.7
20260831171702 92 44 2.6 8.7 0.00 0.00 0.00 65 1014.7
20260831171604 92 16 2.6 8.7 0.00 0.00 0.00 65 1014.8
20260831171503 91 16 2.6 8.7 0.00 0.00 0.00 66 1014.7
20260831171403 91 13 3.5 8.7 0.00 0.00 0.00 65 1014.7
20260831171302 91 11 5.2 8.7 0.00 0.00 0.00 65 1014.7
20260831171202 91 25 5.2 8.7 0.00 0.00 0.00 65 1014.8
20260831171102 91 42 3.5 7.8 0.00 0.00 0.00 65 1014.7
20260831171002 91 32 2.6 5.2 0.00 0.00 0.00 65 1014.7
20260831170903 91 337 1.7 4.3 0.00 0.00 0.00 66 1014.8
20260831170803 91 337 0.9 6.1 0.00 0.00 0.00 66 1014.7
20260831170701 91 321 0.0 7.8 0.00 0.00 0.00 66 1014.7
20260831170603 91 321 0.9 7.8 0.00 0.00 0.00 66 1014.7
20260831170503 91 321 1.7 7.8 0.00 0.00 0.00 65 1014.7
20260831170402 91 321 2.6 7.8 0.00 0.00 0.00 65 1014.7
20260831170303 91 0 1.7 7.8 0.00 0.00 0.00 65 1014.8
20260831170203 92 0 2.6 7.8 0.00 0.00 0.00 65 1014.7
20260831170002 92 6 2.6 7.8 0.00 0.00 0.00 64 1014.8
20260831165904 92 37 3.5 7.8 0.00 0.00 0.00 64 1014.8
20260831165802 92 37 3.5 7.8 0.00 0.00 0.00 64 1014.8
20260831165702 93 31 2.6 8.7 0.00 0.00 0.00 64 1014.8
20260831165603 93 0 2.6 8.7 0.00 0.00 0.00 64 1014.8
20260831165504 93 0 3.5 8.7 0.00 0.00 0.00 64 1014.8
20260831165402 93 0 5.2 8.7 0.00 0.00 0.00 65 1014.8
20260831165305 92 7 4.3 8.7 0.00 0.00 0.00 65 1014.8
20260831165202 92 3 2.6 8.7 0.00 0.00 0.00 66 1014.8
20260831165102 92 10 1.7 8.7 0.00 0.00 0.00 66 1014.8
20260831165003 92 94 2.6 8.7 0.00 0.00 0.00 66 1014.8
20260831164904 92 94 4.3 8.7 0.00 0.00 0.00 66 1014.9
20260831164802 92 73 6.1 8.7 0.00 0.00 0.00 66 1014.9
20260831164702 92 31 6.1 8.7 0.00 0.00 0.00 66 1015.0
20260831164603 92 39 5.2 6.1 0.00 0.00 0.00 66 1014.9
20260831164504 92 51 2.6 6.1 0.00 0.00 0.00 68 1014.9
20260831164403 91 340 1.7 6.1 0.00 0.00 0.00 67 1014.9
20260831164302 91 326 0.9 6.1 0.00 0.00 0.00 68 1014.9
20260831164203 91 0 0.9 8.7 0.00 0.00 0.00 67 1014.9
20260831164102 91 0 0.9 9.6 0.00 0.00 0.00 67 1014.9
20260831164004 91 27 0.9 9.6 0.00 0.00 0.00 67 1014.9
20260831163905 91 27 2.6 9.6 0.00 0.00 0.00 67 1014.9
20260831163802 91 28 3.5 9.6 0.00 0.00 0.00 67 1014.9
20260831163703 91 31 3.5 9.6 0.00 0.00 0.00 67 1014.9
20260831163602 91 18 4.3 9.6 0.00 0.00 0.00 67 1014.9
20260831163504 91 37 4.3 9.6 0.00 0.00 0.00 67 1014.9
20260831163403 91 56 5.2 9.6 0.00 0.00 0.00 67 1014.9
20260831163302 91 61 5.2 9.6 0.00 0.00 0.00 67 1014.9
20260831163204 91 4 3.5 9.6 0.00 0.00 0.00 67 1014.9
20260831163103 91 55 1.7 5.2 0.00 0.00 0.00 66 1014.9
20260831163003 91 56 1.7 6.1 0.00 0.00 0.00 66 1015.0
20260831162902 91 221 2.6 6.1 0.00 0.00 0.00 67 1014.9
20260831162803 91 149 2.6 6.1 0.00 0.00 0.00 67 1014.8
20260831162702 91 165 2.6 6.1 0.00 0.00 0.00 66 1014.8
20260831162602 91 90 2.6 6.1 0.00 0.00 0.00 67 1014.8
20260831162502 91 120 2.6 6.1 0.00 0.00 0.00 66 1014.8
20260831162402 91 120 3.5 6.1 0.00 0.00 0.00 66 1014.9
20260831162305 92 118 3.5 6.1 0.00 0.00 0.00 66 1014.9
20260831162203 92 90 3.5 6.1 0.00 0.00 0.00 66 1014.9
20260831162102 92 103 4.3 6.1 0.00 0.00 0.00 67 1014.9
20260831162003 92 86 3.5 5.2 0.00 0.00 0.00 67 1014.9
20260831161902 91 93 2.6 5.2 0.00 0.00 0.00 67 1014.9
20260831161803 91 49 3.5 5.2 0.00 0.00 0.00 67 1014.9
20260831161702 91 73 3.5 5.2 0.00 0.00 0.00 67 1014.9
20260831161602 91 73 3.5 4.3 0.00 0.00 0.00 68 1014.9
20260831161504 91 66 2.6 4.3 0.00 0.00 0.00 69 1014.9
20260831161403 91 49 0.9 4.3 0.00 0.00 0.00 70 1014.9
20260831161302 90 312 0.9 4.3 0.00 0.00 0.00 70 1014.9
20260831161202 90 312 0.9 4.3 0.00 0.00 0.00 70 1014.9
20260831161104 90 312 1.7 4.3 0.00 0.00 0.00 70 1014.9
20260831161002 90 312 1.7 4.3 0.00 0.00 0.00 70 1015.0
20260831160902 90 312 1.7 4.3 0.00 0.00 0.00 70 1014.9
20260831160804 90 289 1.7 4.3 0.00 0.00 0.00 69 1014.8
20260831160702 90 289 1.7 4.3 0.00 0.00 0.00 69 1014.8
20260831160604 90 248 0.9 4.3 0.00 0.00 0.00 69 1014.8
20260831160503 90 248 1.7 4.3 0.00 0.00 0.00 69 1014.9
20260831160403 90 250 1.7 4.3 0.00 0.00 0.00 69 1014.8
20260831160302 90 250 2.6 4.3 0.00 0.00 0.00 69 1014.8
20260831160202 90 264 2.6 5.2 0.00 0.00 0.00 69 1014.8
20260831160002 90 259 1.7 5.2 0.00 0.00 0.00 70 1015.0
20260831155903 90 258 1.7 5.2 0.00 0.00 0.00 69 1014.9
20260831155802 90 258 2.6 5.2 0.00 0.00 0.00 69 1015.0
20260831155705 90 258 2.6 5.2 0.00 0.00 0.00 70 1014.9
20260831155602 90 258 2.6 5.2 0.00 0.00 0.00 69 1014.9
20260831155502 90 250 1.7 5.2 0.00 0.00 0.00 70 1014.9
20260831155404 90 137 2.6 5.2 0.00 0.00 0.00 70 1014.9
20260831155306 90 138 3.5 5.2 0.00 0.00 0.00 70 1014.9
20260831155202 90 85 2.6 4.3 0.00 0.00 0.00 71 1014.9
20260831155103 90 221 1.7 3.5 0.00 0.00 0.00 72 1014.9
20260831155003 90 272 1.7 3.5 0.00 0.00 0.00 72 1014.9
20260831154902 90 274 1.7 4.3 0.00 0.00 0.00 72 1015.0
20260831154802 90 274 1.7 4.3 0.00 0.00 0.00 71 1014.9
20260831154702 90 274 1.7 4.3 0.00 0.00 0.00 72 1015.0
20260831154602 90 279 1.7 4.3 0.00 0.00 0.00 71 1015.0
20260831154503 90 224 1.7 4.3 0.00 0.00 0.00 72 1015.0
20260831154403 90 204 1.7 5.2 0.00 0.00 0.00 74 1015.0
20260831154303 89 124 1.7 5.2 0.00 0.00 0.00 74 1015.0
20260831154202 89 262 2.6 5.2 0.00 0.00 0.00 74 1015.0
20260831154103 89 271 3.5 5.2 0.00 0.00 0.00 74 1015.0
20260831154003 89 185 2.6 5.2 0.00 0.00 0.00 74 1015.0
20260831153902 89 235 1.7 5.2 0.00 0.00 0.00 75 1015.1
20260831153802 89 166 0.9 5.2 0.00 0.00 0.00 74 1015.0
20260831153704 89 121 1.7 5.2 0.00 0.00 0.00 74 1015.1
20260831153602 89 121 2.6 5.2 0.00 0.00 0.00 75 1015.1
20260831153502 89 171 2.6 5.2 0.00 0.00 0.00 75 1015.0
20260831153404 89 113 1.7 4.3 0.00 0.00 0.00 75 1015.1
20260831153303 88 250 0.9 4.3 0.00 0.00 0.00 76 1015.1
20260831153202 88 251 1.7 4.3 0.00 0.00 0.00 76 1015.1
20260831153102 88 252 2.6 4.3 0.00 0.00 0.00 76 1015.0
20260831153004 88 235 1.7 4.3 0.00 0.00 0.00 76 1015.1
20260831152902 87 324 0.0 2.6 0.00 0.00 0.00 76 1015.1
20260831152802 87 324 0.0 2.6 0.00 0.00 0.00 76 1015.0
20260831152704 87 324 0.9 2.6 0.00 0.00 0.00 75 1015.0
20260831152603 87 324 1.7 4.3 0.00 0.00 0.00 75 1015.0
20260831152502 87 323 1.7 4.3 0.00 0.00 0.00 75 1015.0
20260831152403 87 286 1.7 4.3 0.00 0.00 0.00 76 1014.9
20260831152306 87 331 1.7 4.3 0.00 0.00 0.00 75 1015.0
20260831152203 87 334 1.7 4.3 0.00 0.00 0.00 75 1015.0
20260831152102 87 334 1.7 4.3 0.00 0.00 0.00 76 1015.0
20260831152005 87 334 0.9 5.2 0.00 0.00 0.00 76 1014.9
20260831151902 87 41 0.9 5.2 0.00 0.00 0.00 75 1015.0
20260831151802 87 41 1.7 5.2 0.00 0.00 0.00 75 1015.0
20260831151704 88 41 1.7 5.2 0.00 0.00 0.00 74 1015.0
20260831151602 88 41 0.9 5.2 0.00 0.00 0.00 74 1014.9
20260831151503 88 41 1.7 5.2 0.00 0.00 0.00 73 1014.9
20260831151358 88 41 2.6 5.2 0.00 0.00 0.00 75 1014.9
20260831151257 88 99 1.7 5.2 0.00 0.00 0.00 75 1014.9
20260831151156 88 104 1.7 5.2 0.00 0.00 0.00 75 1014.8
20260831151056 88 106 1.7 5.2 0.00 0.00 0.00 75 1014.8
20260831150953 88 92 1.7 4.3 0.00 0.00 0.00 75 1014.8
20260831150852 88 89 1.7 4.3 0.00 0.00 0.00 76 1014.8
20260831150750 88 178 1.7 4.3 0.00 0.00 0.00 76 1014.9
20260831150649 88 118 0.9 4.3 0.00 0.00 0.00 77 1014.9
20260831150548 87 20 0.9 4.3 0.00 0.00 0.00 77 1014.8
20260831150446 87 20 1.7 4.3 0.00 0.00 0.00 77 1014.8
20260831150344 87 39 2.6 4.3 0.00 0.00 0.00 77 1014.8
20260831150242 87 39 2.6 5.2 0.00 0.00 0.00 77 1014.9
20260831150141 87 49 2.6 5.2 0.00 0.00 0.00 78 1014.8
20260831150039 87 48 0.9 5.2 0.00 0.00 0.00 79 1014.8
20260831145938 87 94 0.9 5.2 0.00 0.00 0.00 79 1014.8
20260831145835 86 96 0.0 5.2 0.00 0.00 0.00 79 1014.9
20260831145736 86 96 1.7 5.2 0.00 0.00 0.00 79 1014.9
20260831145634 86 96 1.7 5.2 0.00 0.00 0.00 79 1014.9
20260831145533 86 94 1.7 5.2 0.00 0.00 0.00 78 1014.9
20260831145432 86 94 3.5 5.2 0.00 0.00 0.00 78 1014.9
20260831145333 86 93 3.5 5.2 0.00 0.00 0.00 79 1014.9
20260831145233 86 34 2.6 5.2 0.00 0.00 0.00 79 1014.9
20260831145132 86 51 2.6 5.2 0.00 0.00 0.00 79 1014.9
20260831145033 86 51 0.9 5.2 0.00 0.00 0.00 79 1014.9
20260831144933 86 20 1.7 5.2 0.00 0.00 0.00 79 1014.9
20260831144832 87 20 3.5 5.2 0.00 0.00 0.00 79 1014.9
20260831144732 87 20 3.5 5.2 0.00 0.00 0.00 80 1015.0
20260831144632 87 28 2.6 5.2 0.00 0.00 0.00 80 1014.9
20260831144532 86 13 3.5 5.2 0.00 0.00 0.00 80 1014.8
20260831144432 86 14 4.3 5.2 0.00 0.00 0.00 81 1014.8
20260831144332 86 39 3.5 5.2 0.00 0.00 0.00 81 1014.9
20260831144233 86 18 1.7 4.3 0.00 0.00 0.00 81 1014.9
20260831144133 86 23 2.6 4.3 0.00 0.00 0.00 81 1014.9
20260831144032 86 23 2.6 4.3 0.00 0.00 0.00 81 1014.9
20260831143934 86 68 1.7 3.5 0.00 0.00 0.00 82 1014.9
20260831143832 85 51 1.7 3.5 0.00 0.00 0.00 82 1014.8
20260831143733 85 51 1.7 3.5 0.00 0.00 0.00 81 1014.8
20260831143633 85 51 2.6 3.5 0.00 0.00 0.00 81 1014.8
20260831143532 85 51 2.6 3.5 0.00 0.00 0.00 81 1014.8
20260831143432 86 44 2.6 3.5 0.00 0.00 0.00 81 1014.8
20260831143332 86 39 1.7 3.5 0.00 0.00 0.00 81 1014.8
20260831143233 86 16 1.7 5.2 0.00 0.00 0.00 81 1014.8
20260831143132 86 16 2.6 5.2 0.00 0.00 0.00 81 1014.9
20260831143031 86 16 2.6 5.2 0.00 0.00 0.00 82 1014.8
20260831142931 86 13 2.6 5.2 0.00 0.00 0.00 82 1014.9
20260831142832 85 37 2.6 5.2 0.00 0.00 0.00 82 1014.8
20260831142732 85 28 1.7 5.2 0.00 0.00 0.00 82 1014.8
20260831142632 85 16 1.7 5.2 0.00 0.00 0.00 82 1014.9
20260831142531 85 16 2.6 5.2 0.00 0.00 0.00 82 1014.9
20260831142433 85 14 2.6 5.2 0.00 0.00 0.00 82 1014.9
20260831142332 85 42 1.7 5.2 0.00 0.00 0.00 83 1014.9
20260831142232 85 16 0.0 3.5 0.00 0.00 0.00 83 1014.8
20260831142132 85 16 0.0 3.5 0.00 0.00 0.00 83 1014.8
20260831142032 85 17 0.0 3.5 0.00 0.00 0.00 83 1014.8
20260831141931 85 17 0.0 3.5 0.00 0.00 0.00 83 1014.9
20260831141833 85 334 0.0 3.5 0.00 0.00 0.00 83 1014.8
20260831141732 85 334 0.9 3.5 0.00 0.00 0.00 83 1014.8
20260831141631 85 334 1.7 3.5 0.00 0.00 0.00 83 1014.8
20260831141533 85 334 2.6 3.5 0.00 0.00 0.00 84 1014.8
20260831141431 84 333 2.6 3.5 0.00 0.00 0.00 83 1014.8
20260831141332 84 338 2.6 3.5 0.00 0.00 0.00 83 1014.7
20260831141232 84 351 1.7 3.5 0.00 0.00 0.00 84 1014.8
20260831141133 84 14 0.9 3.5 0.00 0.00 0.00 84 1014.7
20260831141032 84 20 0.9 3.5 0.00 0.00 0.00 84 1014.7
20260831140932 84 20 1.7 3.5 0.00 0.00 0.00 84 1014.7
20260831140831 84 20 1.7 3.5 0.00 0.00 0.00 84 1014.8
20260831140731 84 35 2.6 3.5 0.00 0.00 0.00 85 1014.7
20260831140631 84 0 1.7 3.5 0.00 0.00 0.00 85 1014.7
20260831140531 84 0 1.7 3.5 0.00 0.00 0.00 85 1014.7
20260831140433 84 0 1.7 3.5 0.00 0.00 0.00 85 1014.7
20260831140332 84 0 0.9 3.5 0.00 0.00 0.00 85 1014.6
20260831140232 84 0 1.7 3.5 0.00 0.00 0.00 86 1014.7
20260831140131 83 0 2.6 4.3 0.00 0.00 0.00 86 1014.6
20260831140033 83 0 1.7 4.3 0.00 0.00 0.00 86 1014.7
20260831135931 83 0 0.9 4.3 0.00 0.00 0.00 86 1014.7
20260831135831 83 0 1.7 4.3 0.00 0.00 0.00 86 1014.7
20260831135731 83 0 1.7 4.3 0.00 0.00 0.00 86 1014.7
20260831135632 83 0 1.7 4.3 0.00 0.00 0.00 86 1014.6
20260831135531 83 0 0.9 4.3 0.00 0.00 0.00 86 1014.6
20260831135432 83 0 1.7 4.3 0.00 0.00 0.00 86 1014.7
20260831135331 83 0 2.6 4.3 0.00 0.00 0.00 86 1014.6
20260831135231 83 0 2.6 4.3 0.00 0.00 0.00 87 1014.6
20260831135131 83 6 2.6 4.3 0.00 0.00 0.00 87 1014.6
20260831135033 83 10 2.6 4.3 0.00 0.00 0.00 87 1014.5
20260831134931 83 10 3.5 4.3 0.00 0.00 0.00 87 1014.6
20260831134831 82 8 2.6 4.3 0.00 0.00 0.00 87 1014.5
20260831134732 82 10 2.6 4.3 0.00 0.00 0.00 87 1014.5
20260831134631 82 11 2.6 4.3 0.00 0.00 0.00 88 1014.4
20260831134531 82 11 3.5 4.3 0.00 0.00 0.00 88 1014.5
20260831134432 82 10 3.5 4.3 0.00 0.00 0.00 88 1014.4
20260831134332 82 11 2.6 4.3 0.00 0.00 0.00 88 1014.5
20260831134231 82 0 1.7 3.5 0.00 0.00 0.00 88 1014.4
20260831134131 82 0 2.6 3.5 0.00 0.00 0.00 88 1014.5
20260831134033 82 0 1.7 3.5 0.00 0.00 0.00 89 1014.5
20260831133932 82 0 1.7 3.5 0.00 0.00 0.00 89 1014.5
20260831133831 82 0 1.7 3.5 0.00 0.00 0.00 89 1014.4
20260831133732 82 0 1.7 3.5 0.00 0.00 0.00 89 1014.5
20260831133631 82 0 1.7 3.5 0.00 0.00 0.00 89 1014.5
20260831133531 81 0 2.6 3.5 0.00 0.00 0.00 89 1014.5
20260831133431 81 0 1.7 3.5 0.00 0.00 0.00 89 1014.6
20260831133332 81 0 1.7 3.5 0.00 0.00 0.00 89 1014.5
20260831133231 81 0 1.7 3.5 0.00 0.00 0.00 89 1014.5
20260831133132 81 0 1.7 2.6 0.00 0.00 0.00 89 1014.4
20260831133033 81 0 1.7 4.3 0.00 0.00 0.00 89 1014.4
20260831132932 81 0 1.7 4.3 0.00 0.00 0.00 89 1014.4
20260831132830 81 0 1.7 4.3 0.00 0.00 0.00 89 1014.4
20260831132731 81 0 1.7 4.3 0.00 0.00 0.00 89 1014.4
20260831132630 81 0 1.7 4.3 0.00 0.00 0.00 89 1014.3
20260831132531 81 0 0.9 4.3 0.00 0.00 0.00 89 1014.3
20260831132431 81 0 0.9 4.3 0.00 0.00 0.00 89 1014.3
20260831132330 81 0 1.7 4.3 0.00 0.00 0.00 89 1014.3
20260831132232 81 0 2.6 4.3 0.00 0.00 0.00 89 1014.3
20260831132130 82 0 2.6 4.3 0.00 0.00 0.00 89 1014.3
20260831132030 82 0 1.7 4.3 0.00 0.00 0.00 89 1014.2
20260831131931 82 0 1.7 4.3 0.00 0.00 0.00 89 1014.2
20260831131830 82 0 2.6 4.3 0.00 0.00 0.00 89 1014.2
20260831131728 82 0 2.6 4.3 0.00 0.00 0.00 89 1014.2
20260831131627 82 0 2.6 4.3 0.00 0.00 0.00 89 1014.1
20260831131525 82 351 1.7 3.5 0.00 0.00 0.00 89 1014.1
20260831131424 82 350 1.7 3.5 0.00 0.00 0.00 89 1014.1
20260831131323 81 350 1.7 3.5 0.00 0.00 0.00 89 1014.1
20260831131222 81 351 1.7 3.5 0.00 0.00 0.00 89 1014.1
20260831131119 81 351 1.7 3.5 0.00 0.00 0.00 89 1014.1
20260831131019 81 351 1.7 3.5 0.00 0.00 0.00 89 1014.0
20260831130917 81 351 1.7 3.5 0.00 0.00 0.00 89 1014.1
20260831130815 81 351 1.7 3.5 0.00 0.00 0.00 89 1014.1
20260831130715 81 351 1.7 3.5 0.00 0.00 0.00 89 1014.1
20260831130612 81 348 1.7 3.5 0.00 0.00 0.00 90 1014.1
20260831130510 81 348 1.7 3.5 0.00 0.00 0.00 90 1014.2
20260831130408 81 347 1.7 3.5 0.00 0.00 0.00 90 1014.1
20260831130309 81 347 2.6 3.5 0.00 0.00 0.00 90 1014.1
20260831130205 81 347 1.7 3.5 0.00 0.00 0.00 90 1014.1
20260831130107 81 337 1.7 2.6 0.00 0.00 0.00 90 1014.2
20260831130004 81 337 1.7 2.6 0.00 0.00 0.00 90 1014.1
20260831125902 81 337 1.7 2.6 0.00 0.00 0.00 90 1014.1
20260831125802 81 337 1.7 2.6 0.00 0.00 0.00 90 1014.1
20260831125704 81 336 1.7 2.6 0.00 0.00 0.00 90 1014.0
20260831125602 81 336 2.6 2.6 0.00 0.00 0.00 90 1014.0
20260831125502 81 336 1.7 2.6 0.00 0.00 0.00 90 1013.9
20260831125402 80 313 1.7 2.6 0.00 0.00 0.00 90 1013.9
20260831125306 80 0 1.7 2.6 0.00 0.00 0.00 90 1013.9
20260831125202 80 0 1.7 2.6 0.00 0.00 0.00 90 1013.9
20260831125101 80 0 1.7 2.6 0.00 0.00 0.00 90 1013.9
20260831125003 80 175 1.7 2.6 0.00 0.00 0.00 90 1013.8
20260831124902 80 169 0.9 2.6 0.00 0.00 0.00 90 1013.9
20260831124802 80 169 0.9 2.6 0.00 0.00 0.00 91 1013.8
20260831124702 80 0 0.9 2.6 0.00 0.00 0.00 91 1013.8
20260831124604 80 179 0.9 2.6 0.00 0.00 0.00 91 1013.7
20260831124502 80 188 0.9 2.6 0.00 0.00 0.00 91 1013.8
20260831124402 80 183 0.9 2.6 0.00 0.00 0.00 91 1013.7
20260831124303 80 183 1.7 2.6 0.00 0.00 0.00 91 1013.8
20260831124203 80 183 1.7 2.6 0.00 0.00 0.00 91 1013.7
20260831124102 80 0 1.7 2.6 0.00 0.00 0.00 91 1013.7
20260831124004 80 0 1.7 2.6 0.00 0.00 0.00 91 1013.7
20260831123903 80 0 1.7 2.6 0.00 0.00 0.00 91 1013.7
20260831123802 80 0 1.7 2.6 0.00 0.00 0.00 91 1013.7
20260831123702 79 0 0.9 2.6 0.00 0.00 0.00 91 1013.8
20260831123602 79 0 0.0 0.0 0.00 0.00 0.00 91 1013.7
20260831123503 79 0 0.0 0.0 0.00 0.00 0.00 91 1013.8
20260831123403 79 0 0.0 0.0 0.00 0.00 0.00 91 1013.8
20260831123302 79 237 0.0 0.0 0.00 0.00 0.00 91 1013.8
20260831123203 79 241 0.0 0.0 0.00 0.00 0.00 92 1013.9
20260831123102 79 241 0.0 0.0 0.00 0.00 0.00 92 1013.8
20260831123002 79 241 0.0 0.0 0.00 0.00 0.00 92 1013.9
20260831122904 79 241 0.0 0.0 0.00 0.00 0.00 92 1013.7
20260831122804 79 241 0.0 0.0 0.00 0.00 0.00 92 1013.7
20260831122703 79 241 0.0 0.0 0.00 0.00 0.00 92 1013.8
20260831122603 79 241 0.0 0.0 0.00 0.00 0.00 92 1013.7
20260831122504 79 241 0.0 0.0 0.00 0.00 0.00 92 1013.7
20260831122403 79 241 0.0 0.9 0.00 0.00 0.00 92 1013.7
20260831122305 79 241 0.0 1.7 0.00 0.00 0.00 92 1013.7
20260831122203 79 241 0.0 1.7 0.00 0.00 0.00 92 1013.6
20260831122102 79 241 0.0 2.6 0.00 0.00 0.00 92 1013.6
20260831122003 79 241 0.0 2.6 0.00 0.00 0.00 92 1013.6
20260831121903 79 241 0.0 2.6 0.00 0.00 0.00 92 1013.5
20260831121803 79 241 0.0 2.6 0.00 0.00 0.00 92 1013.4
20260831121703 79 241 0.0 2.6 0.00 0.00 0.00 92 1013.4
20260831121603 79 241 0.0 2.6 0.00 0.00 0.00 92 1013.4
20260831121503 79 241 0.9 2.6 0.00 0.00 0.00 92 1013.4
20260831121402 79 241 0.9 2.6 0.00 0.00 0.00 92 1013.3
20260831121302 79 241 1.7 2.6 0.00 0.00 0.00 92 1013.2
20260831121204 79 241 1.7 2.6 0.00 0.00 0.00 92 1013.3
20260831121102 78 210 0.0 1.7 0.00 0.00 0.00 92 1013.3
20260831121003 78 209 0.0 0.0 0.00 0.00 0.00 92 1013.3
20260831120903 78 209 0.0 0.0 0.00 0.00 0.00 92 1013.3
20260831120802 78 209 0.0 0.0 0.00 0.00 0.00 92 1013.3
20260831120702 78 209 0.0 0.0 0.00 0.00 0.00 92 1013.3
20260831120603 78 209 0.0 0.0 0.00 0.00 0.00 92 1013.4
20260831120503 78 209 0.0 0.0 0.00 0.00 0.00 92 1013.3
20260831120402 78 209 0.0 0.0 0.00 0.00 0.00 92 1013.3
20260831120303 78 209 0.0 0.0 0.00 0.00 0.00 92 1013.3
20260831120204 78 209 0.0 0.0 0.00 0.00 0.00 92 1013.3
20260831120004 78 209 0.0 0.0 0.00 0.00 0.00 92 1013.3
20260831115903 78 209 0.0 0.0 0.00 0.00 0.00 92 1013.2
20260831115803 78 209 0.0 0.0 0.00 0.00 0.00 91 1013.3
20260831115702 78 207 0.0 0.0 0.00 0.00 0.00 91 1013.3
20260831115602 78 207 0.0 0.0 0.00 0.00 0.00 91 1013.3
20260831115505 78 207 0.0 0.0 0.00 0.00 0.00 91 1013.3
20260831115402 78 207 0.0 0.0 0.00 0.00 0.00 91 1013.3
20260831115306 78 207 0.0 0.0 0.00 0.00 0.00 91 1013.3
20260831115204 78 207 0.0 0.0 0.00 0.00 0.00 91 1013.3
20260831115102 79 206 0.0 0.0 0.00 0.00 0.00 91 1013.2
20260831115003 79 206 0.0 0.0 0.00 0.00 0.00 91 1013.3
20260831114902 79 206 0.0 0.0 0.00 0.00 0.00 91 1013.3
20260831114804 79 206 0.0 0.0 0.00 0.00 0.00 91 1013.2
20260831114702 79 206 0.0 0.0 0.00 0.00 0.00 91 1013.2
20260831114602 79 206 0.0 0.0 0.00 0.00 0.00 91 1013.3
20260831114504 79 206 0.0 0.0 0.00 0.00 0.00 91 1013.2
20260831114402 79 206 0.0 0.0 0.00 0.00 0.00 91 1013.2
20260831114302 79 206 0.0 0.0 0.00 0.00 0.00 91 1013.3
20260831114204 79 206 0.0 0.0 0.00 0.00 0.00 91 1013.3
20260831114103 79 206 0.0 0.0 0.00 0.00 0.00 91 1013.3
20260831114002 79 206 0.0 0.0 0.00 0.00 0.00 91 1013.3
20260831113903 79 206 0.0 0.0 0.00 0.00 0.00 91 1013.3
20260831113802 79 206 0.0 0.0 0.00 0.00 0.00 91 1013.3
20260831113702 79 206 0.0 0.0 0.00 0.00 0.00 91 1013.3
20260831113602 79 206 0.0 0.0 0.00 0.00 0.00 90 1013.4
20260831113505 79 206 0.0 0.0 0.00 0.00 0.00 90 1013.3
20260831113402 79 206 0.0 0.0 0.00 0.00 0.00 90 1013.3
20260831113302 79 206 0.0 0.0 0.00 0.00 0.00 90 1013.3
20260831113203 79 206 0.0 0.0 0.00 0.00 0.00 90 1013.3
20260831113104 79 206 0.0 0.0 0.00 0.00 0.00 90 1013.2
20260831113003 79 206 0.0 0.0 0.00 0.00 0.00 90 1013.2
20260831112902 79 206 0.0 0.0 0.00 0.00 0.00 90 1013.2
20260831112803 79 206 0.0 0.0 0.00 0.00 0.00 90 1013.1
20260831112704 79 206 0.0 0.0 0.00 0.00 0.00 90 1013.1
20260831112604 79 206 0.0 0.0 0.00 0.00 0.00 90 1013.1
20260831112502 79 206 0.0 0.0 0.00 0.00 0.00 90 1013.1
20260831112402 79 206 0.0 0.0 0.00 0.00 0.00 90 1013.1
20260831112306 79 206 0.0 0.0 0.00 0.00 0.00 90 1013.1
20260831112202 79 206 0.0 0.0 0.00 0.00 0.00 90 1013.2
20260831112104 79 206 0.0 0.0 0.00 0.00 0.00 90 1013.2
20260831112003 79 206 0.0 0.0 0.00 0.00 0.00 90 1013.2
20260831111902 79 206 0.0 0.0 0.00 0.00 0.00 90 1013.2
20260831111804 79 206 0.0 0.0 0.00 0.00 0.00 90 1013.3
20260831111703 79 206 0.0 0.0 0.00 0.00 0.00 90 1013.2
20260831111603 79 206 0.0 0.0 0.00 0.00 0.00 90 1013.2
20260831111503 79 206 0.0 0.0 0.00 0.00 0.00 90 1013.2
20260831111404 79 206 0.0 0.0 0.00 0.00 0.00 90 1013.1
20260831111303 79 206 0.0 0.0 0.00 0.00 0.00 90 1013.0
20260831111203 79 206 0.0 0.0 0.00 0.00 0.00 90 1013.1
20260831111104 79 206 0.0 0.0 0.00 0.00 0.00 90 1013.1
20260831111004 79 206 0.0 0.0 0.00 0.00 0.00 90 1013.1
20260831110901 79 206 0.0 0.0 0.00 0.00 0.00 90 1013.1
20260831110802 79 206 0.0 0.0 0.00 0.00 0.00 90 1013.1
20260831110704 79 206 0.0 0.0 0.00 0.00 0.00 90 1013.0
20260831110602 79 206 0.0 0.0 0.00 0.00 0.00 90 1013.0
20260831110502 79 206 0.0 0.0 0.00 0.00 0.00 89 1013.0
20260831110403 79 206 0.0 0.0 0.00 0.00 0.00 89 1013.1
20260831110302 80 206 0.0 0.0 0.00 0.00 0.00 89 1013.1
20260831110203 80 206 0.0 0.0 0.00 0.00 0.00 89 1013.1
20260831110103 80 206 0.0 0.0 0.00 0.00 0.00 89 1013.2
20260831110003 80 206 0.0 0.0 0.00 0.00 0.00 89 1013.2
20260831105902 80 206 0.0 0.9 0.00 0.00 0.00 89 1013.1
20260831105802 80 206 0.0 1.7 0.00 0.00 0.00 89 1013.1
20260831105703 80 206 0.0 1.7 0.00 0.00 0.00 89 1013.0
20260831105602 80 206 0.0 1.7 0.00 0.00 0.00 88 1013.2
20260831105503 80 206 0.0 1.7 0.00 0.00 0.00 88 1013.1
20260831105404 80 206 0.0 1.7 0.00 0.00 0.00 88 1013.2
20260831105306 80 206 0.0 1.7 0.00 0.00 0.00 88 1013.1
20260831105200 80 206 0.0 1.7 0.00 0.00 0.00 89 1013.1
20260831105059 80 206 0.0 1.7 0.00 0.00 0.00 89 1013.1
20260831104957 80 206 0.9 1.7 0.00 0.00 0.00 89 1013.1
20260831104856 80 206 0.9 1.7 0.00 0.00 0.00 89 1013.1
20260831104756 80 206 0.9 1.7 0.00 0.00 0.00 89 1013.1
20260831104652 80 203 0.9 1.7 0.00 0.00 0.00 89 1013.1
20260831104552 80 196 0.0 0.0 0.00 0.00 0.00 89 1013.1
20260831104450 80 196 0.0 0.0 0.00 0.00 0.00 89 1013.1
20260831104349 80 196 0.0 0.0 0.00 0.00 0.00 89 1013.0
20260831104247 80 196 0.0 0.0 0.00 0.00 0.00 89 1013.0
20260831104145 80 195 0.0 0.0 0.00 0.00 0.00 90 1013.0
20260831104043 80 195 0.0 0.0 0.00 0.00 0.00 90 1013.0
20260831103941 80 195 0.0 0.0 0.00 0.00 0.00 90 1013.0
20260831103842 80 193 0.0 0.0 0.00 0.00 0.00 90 1013.0
20260831103741 80 192 0.0 0.0 0.00 0.00 0.00 90 1013.0
20260831103639 80 192 0.0 0.0 0.00 0.00 0.00 90 1013.0
20260831103536 80 192 0.0 0.0 0.00 0.00 0.00 90 1013.0
20260831103435 80 192 0.0 0.0 0.00 0.00 0.00 90 1013.0
20260831103334 80 190 0.0 0.0 0.00 0.00 0.00 90 1013.0
20260831103232 79 190 0.0 0.0 0.00 0.00 0.00 91 1013.0
20260831103128 79 190 0.0 0.0 0.00 0.00 0.00 90 1013.1
20260831103026 79 190 0.0 0.0 0.00 0.00 0.00 90 1013.0
20260831102927 79 190 0.0 0.0 0.00 0.00 0.00 90 1013.1
20260831102828 79 190 0.0 0.0 0.00 0.00 0.00 90 1013.0
20260831102727 79 190 0.0 0.0 0.00 0.00 0.00 90 1012.9
20260831102626 79 190 0.0 0.0 0.00 0.00 0.00 90 1012.9
20260831102528 79 190 0.0 0.0 0.00 0.00 0.00 90 1013.0
20260831102428 79 190 0.0 0.0 0.00 0.00 0.00 90 1013.0
20260831102328 79 190 0.0 0.0 0.00 0.00 0.00 90 1013.0
20260831102228 79 190 0.0 0.0 0.00 0.00 0.00 90 1013.0
20260831102126 79 190 0.0 0.0 0.00 0.00 0.00 90 1013.1
20260831102027 79 190 0.0 0.0 0.00 0.00 0.00 90 1013.1
20260831101927 79 190 0.0 0.0 0.00 0.00 0.00 90 1013.1
20260831101826 79 190 0.0 0.0 0.00 0.00 0.00 90 1013.2
20260831101728 79 190 0.0 0.0 0.00 0.00 0.00 90 1013.1
20260831101627 80 190 0.0 0.0 0.00 0.00 0.00 90 1013.1
20260831101527 80 189 0.0 0.0 0.00 0.00 0.00 90 1013.2
20260831101427 80 188 0.0 0.0 0.00 0.00 0.00 90 1013.1
20260831101328 80 186 0.0 0.0 0.00 0.00 0.00 90 1013.1
20260831101227 80 186 0.0 0.0 0.00 0.00 0.00 90 1013.2
20260831101127 80 186 0.0 0.0 0.00 0.00 0.00 90 1013.2
20260831101026 80 186 0.0 0.0 0.00 0.00 0.00 90 1013.2
20260831100926 80 186 0.0 0.0 0.00 0.00 0.00 90 1013.2
20260831100827 80 186 0.0 0.0 0.00 0.00 0.00 90 1013.3
20260831100726 80 186 0.0 0.0 0.00 0.00 0.00 90 1013.3
20260831100626 80 186 0.0 0.0 0.00 0.00 0.00 90 1013.3
20260831100526 80 186 0.0 0.0 0.00 0.00 0.00 90 1013.3
20260831100427 80 186 0.0 0.0 0.00 0.00 0.00 90 1013.3
20260831100326 80 186 0.0 0.0 0.00 0.00 0.00 90 1013.2
20260831100226 80 186 0.0 0.0 0.00 0.00 0.00 90 1013.2
20260831100129 80 186 0.0 0.0 0.00 0.00 0.00 90 1013.2
20260831100025 80 186 0.0 0.0 0.00 0.00 0.00 90 1013.2
20260831095927 80 186 0.0 0.0 0.00 0.00 0.00 90 1013.2
20260831095827 79 186 0.0 0.0 0.00 0.00 0.00 90 1013.2
20260831095726 80 186 0.0 0.0 0.00 0.00 0.00 90 1013.3
20260831095626 79 186 0.0 0.0 0.00 0.00 0.00 90 1013.3
20260831095526 79 186 0.0 0.0 0.00 0.00 0.00 90 1013.3
20260831095428 79 186 0.0 0.0 0.00 0.00 0.00 90 1013.3
20260831095326 79 186 0.0 0.0 0.00 0.00 0.00 90 1013.3
20260831095225 79 186 0.0 0.0 0.00 0.00 0.00 90 1013.3
20260831095125 80 186 0.0 0.0 0.00 0.00 0.00 90 1013.3
20260831095025 80 186 0.0 0.0 0.00 0.00 0.00 90 1013.2
20260831094925 80 186 0.0 0.0 0.00 0.00 0.00 90 1013.3
20260831094826 80 186 0.0 0.0 0.00 0.00 0.00 90 1013.2
20260831094727 80 186 0.0 0.9 0.00 0.00 0.00 90 1013.2
20260831094626 80 186 0.0 1.7 0.00 0.00 0.00 90 1013.2
20260831094526 80 186 0.0 1.7 0.00 0.00 0.00 90 1013.2
20260831094428 80 186 0.0 1.7 0.00 0.00 0.00 90 1013.2
20260831094326 80 185 0.0 1.7 0.00 0.00 0.00 90 1013.2
20260831094225 80 185 0.0 1.7 0.00 0.00 0.00 90 1013.2
20260831094125 80 185 0.0 1.7 0.00 0.00 0.00 90 1013.2
20260831094026 80 185 0.0 1.7 0.00 0.00 0.00 90 1013.1
20260831093925 80 185 0.0 1.7 0.00 0.00 0.00 90 1013.1
20260831093825 80 185 0.9 1.7 0.00 0.00 0.00 89 1013.1
20260831093726 80 183 0.9 1.7 0.00 0.00 0.00 90 1013.1
20260831093625 80 182 0.9 1.7 0.00 0.00 0.00 89 1013.1
20260831093525 80 182 0.9 1.7 0.00 0.00 0.00 89 1013.0
20260831093425 80 180 0.9 1.7 0.00 0.00 0.00 89 1013.1
20260831093327 80 176 0.0 1.7 0.00 0.00 0.00 89 1013.1
20260831093225 80 176 0.9 1.7 0.00 0.00 0.00 90 1013.1
20260831093125 80 176 0.9 1.7 0.00 0.00 0.00 90 1013.1
20260831093026 80 176 0.0 0.9 0.00 0.00 0.00 90 1013.1
20260831092925 80 176 0.0 0.0 0.00 0.00 0.00 90 1013.0
20260831092825 80 176 0.0 0.0 0.00 0.00 0.00 90 1013.0
20260831092725 80 176 0.0 0.0 0.00 0.00 0.00 90 1013.0
20260831092625 80 176 0.0 0.0 0.00 0.00 0.00 90 1013.0
20260831092525 80 176 0.0 0.0 0.00 0.00 0.00 90 1013.0
20260831092426 80 176 0.0 0.0 0.00 0.00 0.00 90 1013.0
20260831092327 80 176 0.0 0.0 0.00 0.00 0.00 90 1013.1
20260831092225 80 176 0.0 0.0 0.00 0.00 0.00 89 1013.1
20260831092125 80 176 0.0 0.0 0.00 0.00 0.00 90 1013.0
20260831092026 80 176 0.0 0.0 0.00 0.00 0.00 89 1013.1
20260831091925 80 176 0.0 0.0 0.00 0.00 0.00 89 1013.0
20260831091824 80 176 0.0 0.0 0.00 0.00 0.00 89 1013.0
20260831091725 80 176 0.0 0.9 0.00 0.00 0.00 89 1013.0
20260831091625 80 176 0.0 1.7 0.00 0.00 0.00 89 1013.1
20260831091525 80 176 0.0 1.7 0.00 0.00 0.00 89 1013.0
20260831091425 80 176 0.0 1.7 0.00 0.00 0.00 89 1013.0
20260831091325 80 176 0.0 1.7 0.00 0.00 0.00 89 1013.0
20260831091224 80 176 0.0 1.7 0.00 0.00 0.00 89 1012.9
20260831091125 80 176 0.0 1.7 0.00 0.00 0.00 89 1012.9
20260831091025 80 176 0.0 1.7 0.00 0.00 0.00 89 1012.9
20260831090925 80 176 0.0 1.7 0.00 0.00 0.00 89 1013.0
20260831090824 80 176 0.0 1.7 0.00 0.00 0.00 89 1013.0
20260831090724 80 176 0.9 1.7 0.00 0.00 0.00 89 1013.0
20260831090625 80 176 0.9 1.7 0.00 0.00 0.00 89 1012.9
20260831090525 80 176 0.9 1.7 0.00 0.00 0.00 89 1012.9
20260831090426 80 176 0.0 1.7 0.00 0.00 0.00 89 1013.0
20260831090325 80 176 0.0 0.0 0.00 0.00 0.00 89 1013.0
20260831090226 80 169 0.0 0.0 0.00 0.00 0.00 89 1013.0
20260831090124 80 169 0.0 0.0 0.00 0.00 0.00 89 1013.0
20260831090025 80 169 0.0 0.0 0.00 0.00 0.00 89 1013.1
20260831085925 80 169 0.0 0.0 0.00 0.00 0.00 89 1013.1
20260831085824 80 169 0.0 0.0 0.00 0.00 0.00 89 1013.0
20260831085725 80 169 0.0 0.0 0.00 0.00 0.00 90 1013.0
20260831085625 80 169 0.0 0.0 0.00 0.00 0.00 89 1013.1
20260831085526 80 169 0.0 0.0 0.00 0.00 0.00 89 1013.1
20260831085424 80 169 0.0 0.0 0.00 0.00 0.00 90 1013.0
20260831085325 80 169 0.0 0.0 0.00 0.00 0.00 89 1013.1
20260831085225 80 169 0.0 0.0 0.00 0.00 0.00 89 1013.1
20260831085124 80 169 0.0 0.0 0.00 0.00 0.00 89 1013.1
20260831085025 80 169 0.0 0.0 0.00 0.00 0.00 89 1013.1
20260831084925 80 169 0.0 0.0 0.00 0.00 0.00 90 1013.1
20260831084825 80 169 0.0 0.0 0.00 0.00 0.00 90 1013.1
20260831084724 80 169 0.0 0.0 0.00 0.00 0.00 90 1013.1
20260831084625 80 169 0.0 0.0 0.00 0.00 0.00 90 1013.2
20260831084526 80 169 0.0 0.0 0.00 0.00 0.00 90 1013.2
20260831084425 80 169 0.0 0.0 0.00 0.00 0.00 90 1013.2
20260831084324 80 169 0.0 0.0 0.00 0.00 0.00 90 1013.2
20260831084224 80 169 0.0 0.0 0.00 0.00 0.00 90 1013.2
20260831084125 80 169 0.0 0.0 0.00 0.00 0.00 90 1013.1
20260831084024 80 169 0.0 0.0 0.00 0.00 0.00 90 1013.2
20260831083924 80 169 0.0 0.0 0.00 0.00 0.00 90 1013.3
20260831083825 80 169 0.0 0.0 0.00 0.00 0.00 90 1013.1
20260831083724 80 169 0.0 0.0 0.00 0.00 0.00 90 1013.2
20260831083624 80 169 0.0 0.0 0.00 0.00 0.00 90 1013.2
20260831083525 80 169 0.0 0.0 0.00 0.00 0.00 90 1013.2
20260831083426 80 169 0.0 0.0 0.00 0.00 0.00 90 1013.2
20260831083324 80 169 0.0 0.0 0.00 0.00 0.00 90 1013.1
20260831083224 80 169 0.0 0.0 0.00 0.00 0.00 90 1013.2
20260831083125 80 169 0.0 0.0 0.00 0.00 0.00 90 1013.3
20260831083025 80 169 0.0 0.0 0.00 0.00 0.00 90 1013.3
20260831082924 80 169 0.0 0.0 0.00 0.00 0.00 90 1013.3
20260831082823 80 169 0.0 0.0 0.00 0.00 0.00 90 1013.3
20260831082720 80 169 0.0 0.0 0.00 0.00 0.00 90 1013.3
20260831082619 80 169 0.0 0.0 0.00 0.00 0.00 90 1013.2
20260831082518 80 169 0.0 0.0 0.00 0.00 0.00 89 1013.3
20260831082417 80 169 0.0 0.0 0.00 0.00 0.00 89 1013.3
20260831082314 80 169 0.0 0.0 0.00 0.00 0.00 89 1013.2
20260831082214 80 169 0.0 0.0 0.00 0.00 0.00 89 1013.3
20260831082112 80 169 0.0 0.0 0.00 0.00 0.00 89 1013.3
20260831082009 80 169 0.0 0.0 0.00 0.00 0.00 89 1013.2
20260831081910 80 169 0.0 0.0 0.00 0.00 0.00 89 1013.3
20260831081806 80 169 0.0 0.0 0.00 0.00 0.00 89 1013.4
20260831081704 80 169 0.0 0.0 0.00 0.00 0.00 89 1013.3
20260831081603 80 169 0.0 0.0 0.00 0.00 0.00 89 1013.4
20260831081502 80 169 0.0 0.0 0.00 0.00 0.00 89 1013.4
20260831081403 80 169 0.0 0.0 0.00 0.00 0.00 89 1013.3
20260831081303 80 169 0.0 0.0 0.00 0.00 0.00 89 1013.3
20260831081201 80 169 0.0 0.0 0.00 0.00 0.00 89 1013.4
20260831081103 80 169 0.0 0.0 0.00 0.00 0.00 89 1013.3
20260831081003 80 169 0.0 0.0 0.00 0.00 0.00 89 1013.4
20260831080902 80 169 0.0 0.0 0.00 0.00 0.00 89 1013.3
20260831080803 80 169 0.0 0.0 0.00 0.00 0.00 89 1013.4
20260831080702 80 169 0.0 0.0 0.00 0.00 0.00 89 1013.5
20260831080604 80 169 0.0 0.0 0.00 0.00 0.00 89 1013.4
20260831080503 80 169 0.0 0.0 0.00 0.00 0.00 89 1013.4
20260831080401 80 169 0.0 0.0 0.00 0.00 0.00 89 1013.4
20260831080303 80 169 0.0 0.0 0.00 0.00 0.00 89 1013.3
20260831080204 80 169 0.0 0.0 0.00 0.00 0.00 89 1013.4
20260831080003 80 169 0.0 0.0 0.00 0.00 0.00 89 1013.4
20260831075903 80 169 0.0 0.0 0.00 0.00 0.00 89 1013.4
20260831075802 80 169 0.0 0.0 0.00 0.00 0.00 88 1013.4
20260831075703 80 169 0.0 0.0 0.00 0.00 0.00 88 1013.4
20260831075603 80 169 0.0 0.0 0.00 0.00 0.00 88 1013.4
20260831075501 80 169 0.0 0.0 0.00 0.00 0.00 88 1013.4
20260831075402 80 169 0.0 0.0 0.00 0.00 0.00 88 1013.4
20260831075306 80 169 0.0 0.0 0.00 0.00 0.00 88 1013.4
20260831075203 81 169 0.0 0.0 0.00 0.00 0.00 88 1013.3
20260831075103 81 169 0.0 0.0 0.00 0.00 0.00 88 1013.4
20260831075004 81 169 0.0 0.0 0.00 0.00 0.00 88 1013.3
20260831074902 81 169 0.0 0.0 0.00 0.00 0.00 88 1013.4
20260831074802 81 169 0.0 0.0 0.00 0.00 0.00 88 1013.4
20260831074702 81 169 0.0 0.0 0.00 0.00 0.00 88 1013.3
20260831074603 81 169 0.0 0.0 0.00 0.00 0.00 88 1013.3
20260831074504 81 169 0.0 0.0 0.00 0.00 0.00 88 1013.4
20260831074401 81 169 0.0 0.0 0.00 0.00 0.00 87 1013.4
20260831074303 81 169 0.0 0.0 0.00 0.00 0.00 87 1013.4
20260831074202 81 169 0.0 0.9 0.00 0.00 0.00 87 1013.4
20260831074103 81 169 0.0 0.9 0.00 0.00 0.00 87 1013.4
20260831074002 81 169 0.0 0.9 0.00 0.00 0.00 86 1013.4
20260831073903 81 169 0.0 0.9 0.00 0.00 0.00 86 1013.5
20260831073802 81 169 0.0 1.7 0.00 0.00 0.00 86 1013.5
20260831073702 81 169 0.0 1.7 0.00 0.00 0.00 86 1013.5
20260831073604 81 169 0.0 1.7 0.00 0.00 0.00 86 1013.5
20260831073504 81 169 0.0 1.7 0.00 0.00 0.00 86 1013.4
20260831073402 81 169 0.0 1.7 0.00 0.00 0.00 86 1013.5
20260831073302 81 169 0.0 1.7 0.00 0.00 0.00 86 1013.5
20260831073203 82 169 0.0 1.7 0.00 0.00 0.00 86 1013.4
20260831073102 82 169 0.0 1.7 0.00 0.00 0.00 86 1013.4
20260831073004 82 62 0.0 1.7 0.00 0.00 0.00 86 1013.4
20260831072903 82 59 0.9 2.6 0.00 0.00 0.00 86 1013.4
20260831072802 82 59 0.9 2.6 0.00 0.00 0.00 86 1013.5
20260831072702 82 59 0.9 2.6 0.00 0.00 0.00 86 1013.3
20260831072603 82 58 0.0 2.6 0.00 0.00 0.00 86 1013.3
20260831072503 82 59 0.9 2.6 0.00 0.00 0.00 86 1013.4
20260831072403 82 59 0.9 2.6 0.00 0.00 0.00 86 1013.4
20260831072306 82 59 0.9 2.6 0.00 0.00 0.00 86 1013.4
20260831072203 82 59 0.9 2.6 0.00 0.00 0.00 86 1013.4
20260831072102 82 61 0.9 2.6 0.00 0.00 0.00 86 1013.4
20260831072003 82 58 0.9 2.6 0.00 0.00 0.00 86 1013.5
20260831071902 82 56 0.9 2.6 0.00 0.00 0.00 86 1013.5
20260831071803 82 56 0.9 2.6 0.00 0.00 0.00 86 1013.4
20260831071702 82 56 0.9 2.6 0.00 0.00 0.00 86 1013.4
20260831071602 82 58 0.9 3.5 0.00 0.00 0.00 86 1013.4
20260831071503 82 58 0.0 3.5 0.00 0.00 0.00 86 1013.4
20260831071403 82 62 0.0 3.5 0.00 0.00 0.00 86 1013.5
20260831071302 82 61 0.9 3.5 0.00 0.00 0.00 86 1013.4
20260831071204 82 62 0.0 3.5 0.00 0.00 0.00 86 1013.4
20260831071103 82 55 0.0 3.5 0.00 0.00 0.00 86 1013.4
20260831071003 82 54 0.0 3.5 0.00 0.00 0.00 86 1013.4
20260831070904 82 54 0.9 3.5 0.00 0.00 0.00 86 1013.4
20260831070803 82 63 0.9 3.5 0.00 0.00 0.00 86 1013.3
20260831070702 82 0 0.9 3.5 0.00 0.00 0.00 86 1013.4
20260831070601 82 56 0.0 0.0 0.00 0.00 0.00 87 1013.4
20260831070505 82 71 0.0 0.0 0.00 0.00 0.00 87 1013.4
20260831070403 81 72 0.0 0.0 0.00 0.00 0.00 87 1013.4
20260831070301 81 58 0.0 0.0 0.00 0.00 0.00 87 1013.3
20260831070202 81 55 0.0 0.0 0.00 0.00 0.00 87 1013.4
20260831070001 81 55 0.0 0.0 0.00 0.00 0.00 87 1013.4
20260831065901 81 55 0.0 0.0 0.00 0.00 0.00 87 1013.4
20260831065804 81 56 0.0 0.0 0.00 0.00 0.00 87 1013.5
20260831065702 81 56 0.0 0.0 0.00 0.00 0.00 87 1013.4
20260831065602 81 55 0.0 0.0 0.00 0.00 0.00 87 1013.4
20260831065504 81 148 0.0 0.0 0.00 0.00 0.00 86 1013.5
20260831065403 81 152 0.0 0.0 0.00 0.00 0.00 87 1013.4
20260831065306 81 152 0.0 0.0 0.00 0.00 0.00 87 1013.5
20260831065204 81 154 0.0 0.0 0.00 0.00 0.00 87 1013.4
20260831065104 81 154 0.0 0.0 0.00 0.00 0.00 86 1013.5
20260831065001 81 154 0.0 0.0 0.00 0.00 0.00 86 1013.5
20260831064901 81 154 0.0 0.0 0.00 0.00 0.00 86 1013.6
20260831064803 81 149 0.0 1.7 0.00 0.00 0.00 86 1013.5
20260831064703 82 149 0.0 1.7 0.00 0.00 0.00 86 1013.6
20260831064602 82 151 0.0 1.7 0.00 0.00 0.00 86 1013.5
20260831064502 82 157 0.0 1.7 0.00 0.00 0.00 86 1013.6
20260831064403 82 158 0.0 1.7 0.00 0.00 0.00 86 1013.6
20260831064302 82 158 0.0 1.7 0.00 0.00 0.00 86 1013.5
20260831064202 82 158 0.0 1.7 0.00 0.00 0.00 86 1013.5
20260831064104 82 158 0.0 1.7 0.00 0.00 0.00 86 1013.5
20260831064003 82 157 0.0 1.7 0.00 0.00 0.00 86 1013.6
20260831063903 82 157 0.9 1.7 0.00 0.00 0.00 86 1013.6
20260831063802 82 157 0.0 2.6 0.00 0.00 0.00 85 1013.6
20260831063702 82 138 0.9 3.5 0.00 0.00 0.00 85 1013.6
20260831063603 82 161 0.0 3.5 0.00 0.00 0.00 85 1013.7
20260831063502 82 162 0.0 3.5 0.00 0.00 0.00 85 1013.7
20260831063403 82 164 0.0 3.5 0.00 0.00 0.00 85 1013.6
20260831063302 82 164 0.9 3.5 0.00 0.00 0.00 85 1013.6
20260831063202 82 164 0.0 3.5 0.00 0.00 0.00 85 1013.6
20260831063103 82 164 0.0 3.5 0.00 0.00 0.00 85 1013.6
20260831063003 82 164 0.9 3.5 0.00 0.00 0.00 85 1013.5
20260831062903 82 164 1.7 3.5 0.00 0.00 0.00 85 1013.6
20260831062802 82 172 1.7 4.3 0.00 0.00 0.00 85 1013.6
20260831062703 82 175 0.0 4.3 0.00 0.00 0.00 85 1013.6
20260831062602 82 169 0.9 4.3 0.00 0.00 0.00 85 1013.6
20260831062502 82 171 1.7 4.3 0.00 0.00 0.00 85 1013.6
20260831062403 83 176 1.7 4.3 0.00 0.00 0.00 84 1013.5
20260831062305 83 171 1.7 4.3 0.00 0.00 0.00 84 1013.6
20260831062202 83 172 1.7 4.3 0.00 0.00 0.00 84 1013.6
20260831062102 83 173 2.6 4.3 0.00 0.00 0.00 84 1013.5
20260831062004 83 182 2.6 4.3 0.00 0.00 0.00 84 1013.6
20260831061902 83 173 2.6 4.3 0.00 0.00 0.00 84 1013.6
20260831061803 83 186 2.6 4.3 0.00 0.00 0.00 84 1013.6
20260831061703 83 182 1.7 4.3 0.00 0.00 0.00 84 1013.6
20260831061603 83 179 1.7 4.3 0.00 0.00 0.00 84 1013.6
20260831061503 83 159 1.7 4.3 0.00 0.00 0.00 84 1013.6
20260831061404 83 175 1.7 4.3 0.00 0.00 0.00 84 1013.5
20260831061302 83 183 1.7 4.3 0.00 0.00 0.00 84 1013.5
20260831061202 83 172 1.7 4.3 0.00 0.00 0.00 84 1013.6
20260831061102 83 168 1.7 4.3 0.00 0.00 0.00 84 1013.5
20260831061003 83 168 1.7 4.3 0.00 0.00 0.00 84 1013.5
20260831060902 83 196 1.7 4.3 0.00 0.00 0.00 84 1013.6
20260831060800 83 169 2.6 4.3 0.00 0.00 0.00 84 1013.6
20260831060659 83 165 1.7 4.3 0.00 0.00 0.00 84 1013.5
20260831060556 83 188 1.7 4.3 0.00 0.00 0.00 84 1013.6
20260831060455 83 179 1.7 4.3 0.00 0.00 0.00 84 1013.6
20260831060354 83 183 1.7 4.3 0.00 0.00 0.00 84 1013.6
20260831060252 83 169 1.7 4.3 0.00 0.00 0.00 84 1013.5
20260831060151 83 200 1.7 4.3 0.00 0.00 0.00 84 1013.6
20260831060051 83 188 1.7 4.3 0.00 0.00 0.00 84 1013.6
20260831055949 83 162 1.7 4.3 0.00 0.00 0.00 84 1013.5
20260831055846 83 172 1.7 4.3 0.00 0.00 0.00 84 1013.6
20260831055745 83 172 1.7 4.3 0.00 0.00 0.00 84 1013.5
20260831055643 83 165 1.7 4.3 0.00 0.00 0.00 84 1013.6
20260831055542 83 180 0.9 3.5 0.00 0.00 0.00 84 1013.6
20260831055442 83 158 1.7 3.5 0.00 0.00 0.00 84 1013.7
20260831055340 83 159 2.6 3.5 0.00 0.00 0.00 84 1013.6
20260831055238 83 169 2.6 3.5 0.00 0.00 0.00 84 1013.6
20260831055137 83 155 1.7 3.5 0.00 0.00 0.00 84 1013.6
20260831055035 83 173 1.7 3.5 0.00 0.00 0.00 84 1013.6
20260831054933 83 178 0.9 3.5 0.00 0.00 0.00 84 1013.6
20260831054831 83 185 1.7 3.5 0.00 0.00 0.00 84 1013.6
20260831054731 83 183 1.7 3.5 0.00 0.00 0.00 84 1013.6
20260831054631 83 178 1.7 3.5 0.00 0.00 0.00 84 1013.6
20260831054532 83 175 1.7 3.5 0.00 0.00 0.00 84 1013.6
20260831054431 83 173 1.7 3.5 0.00 0.00 0.00 84 1013.6
20260831054332 83 165 1.7 3.5 0.00 0.00 0.00 84 1013.6
20260831054234 83 173 1.7 3.5 0.00 0.00 0.00 84 1013.6
20260831054131 83 180 1.7 3.5 0.00 0.00 0.00 84 1013.7
20260831054032 83 183 1.7 3.5 0.00 0.00 0.00 84 1013.7
20260831053931 83 180 1.7 3.5 0.00 0.00 0.00 84 1013.7
20260831053833 83 185 1.7 3.5 0.00 0.00 0.00 84 1013.7
20260831053731 83 144 0.9 3.5 0.00 0.00 0.00 84 1013.6
20260831053632 83 141 0.9 3.5 0.00 0.00 0.00 84 1013.6
20260831053533 83 138 0.9 3.5 0.00 0.00 0.00 84 1013.7
20260831053432 83 135 1.7 3.5 0.00 0.00 0.00 85 1013.7
20260831053331 82 142 1.7 3.5 0.00 0.00 0.00 84 1013.6
20260831053228 82 173 1.7 2.6 0.00 0.00 0.00 84 1013.7
20260831053125 82 169 1.7 2.6 0.00 0.00 0.00 84 1013.6
20260831053026 82 118 1.7 2.6 0.00 0.00 0.00 84 1013.6
20260831052925 82 124 0.9 4.3 0.00 0.00 0.00 84 1013.6
20260831052822 82 123 0.9 4.3 0.00 0.00 0.00 84 1013.6
20260831052721 83 118 0.9 4.3 0.00 0.00 0.00 84 1013.6
20260831052620 83 138 0.9 4.3 0.00 0.00 0.00 84 1013.5
20260831052520 83 141 0.0 4.3 0.00 0.00 0.00 84 1013.5
20260831052420 83 142 0.0 4.3 0.00 0.00 0.00 84 1013.6
20260831052320 83 142 0.9 4.3 0.00 0.00 0.00 84 1013.5
20260831052221 83 144 0.9 4.3 0.00 0.00 0.00 84 1013.5
20260831052120 83 147 1.7 4.3 0.00 0.00 0.00 84 1013.6
20260831052020 83 176 0.9 4.3 0.00 0.00 0.00 84 1013.5
20260831051919 83 147 0.9 4.3 0.00 0.00 0.00 84 1013.6
20260831051819 83 151 1.7 4.3 0.00 0.00 0.00 84 1013.5
20260831051721 83 147 1.7 4.3 0.00 0.00 0.00 84 1013.5
20260831051621 83 149 1.7 4.3 0.00 0.00 0.00 84 1013.5
20260831051519 83 131 1.7 4.3 0.00 0.00 0.00 84 1013.5
20260831051419 83 183 0.9 4.3 0.00 0.00 0.00 84 1013.5
20260831051321 83 135 0.9 3.5 0.00 0.00 0.00 84 1013.5
20260831051220 83 134 1.7 3.5 0.00 0.00 0.00 84 1013.4
20260831051119 83 131 1.7 3.5 0.00 0.00 0.00 84 1013.4
20260831051020 83 140 1.7 3.5 0.00 0.00 0.00 84 1013.5
20260831050921 83 121 1.7 3.5 0.00 0.00 0.00 84 1013.5
20260831050819 83 107 1.7 3.5 0.00 0.00 0.00 84 1013.5
20260831050719 83 148 1.7 3.5 0.00 0.00 0.00 84 1013.4
20260831050621 83 131 1.7 3.5 0.00 0.00 0.00 84 1013.4
20260831050519 83 148 1.7 3.5 0.00 0.00 0.00 84 1013.4
20260831050419 83 138 1.7 3.5 0.00 0.00 0.00 84 1013.4
20260831050320 83 140 0.9 3.5 0.00 0.00 0.00 84 1013.4
20260831050222 83 140 0.9 2.6 0.00 0.00 0.00 84 1013.4
20260831050119 83 124 0.9 2.6 0.00 0.00 0.00 84 1013.4
20260831050019 83 121 0.9 4.3 0.00 0.00 0.00 84 1013.3
20260831045919 83 121 0.9 4.3 0.00 0.00 0.00 83 1013.3
20260831045820 83 141 0.0 4.3 0.00 0.00 0.00 83 1013.4
20260831045719 83 144 0.0 4.3 0.00 0.00 0.00 83 1013.4
20260831045619 83 145 0.0 4.3 0.00 0.00 0.00 83 1013.4
20260831045518 83 145 0.0 4.3 0.00 0.00 0.00 83 1013.5
20260831045418 83 171 0.0 4.3 0.00 0.00 0.00 83 1013.4
20260831045320 83 173 0.0 4.3 0.00 0.00 0.00 83 1013.4
20260831045219 83 176 1.7 4.3 0.00 0.00 0.00 83 1013.4
20260831045119 83 183 1.7 4.3 0.00 0.00 0.00 83 1013.4
20260831045018 83 138 0.0 2.6 0.00 0.00 0.00 83 1013.4
20260831044919 83 161 0.0 2.6 0.00 0.00 0.00 83 1013.3
20260831044819 83 161 0.9 2.6 0.00 0.00 0.00 83 1013.4
20260831044720 83 161 0.9 2.6 0.00 0.00 0.00 82 1013.4
20260831044620 83 148 0.0 2.6 0.00 0.00 0.00 82 1013.4
20260831044519 83 157 0.9 2.6 0.00 0.00 0.00 82 1013.4
20260831044418 83 158 0.9 3.5 0.00 0.00 0.00 82 1013.4
20260831044319 83 137 0.0 5.2 0.00 0.00 0.00 82 1013.4
20260831044219 83 137 0.9 6.1 0.00 0.00 0.00 82 1013.4
20260831044119 83 147 0.9 6.1 0.00 0.00 0.00 82 1013.4
20260831044019 83 135 0.9 6.1 0.00 0.00 0.00 82 1013.4
20260831043919 84 94 0.9 6.1 0.00 0.00 0.00 82 1013.3
20260831043819 84 94 0.9 6.1 0.00 0.00 0.00 82 1013.3
20260831043719 84 76 0.9 6.1 0.00 0.00 0.00 82 1013.4
20260831043620 84 72 1.7 6.1 0.00 0.00 0.00 82 1013.3
20260831043519 84 113 1.7 6.1 0.00 0.00 0.00 82 1013.3
20260831043418 84 164 2.6 6.1 0.00 0.00 0.00 82 1013.3
20260831043318 84 152 3.5 6.1 0.00 0.00 0.00 82 1013.2
20260831043218 84 125 2.6 5.2 0.00 0.00 0.00 82 1013.1
20260831043118 84 134 1.7 5.2 0.00 0.00 0.00 82 1013.3
20260831043018 84 192 1.7 5.2 0.00 0.00 0.00 82 1013.3
20260831042918 84 169 2.6 5.2 0.00 0.00 0.00 82 1013.2
20260831042819 84 200 1.7 5.2 0.00 0.00 0.00 82 1013.3
20260831042718 84 178 1.7 5.2 0.00 0.00 0.00 82 1013.3
20260831042619 84 134 2.6 5.2 0.00 0.00 0.00 82 1013.3
20260831042519 84 180 2.6 5.2 0.00 0.00 0.00 81 1013.3
20260831042418 83 127 2.6 5.2 0.00 0.00 0.00 81 1013.3
20260831042319 84 147 1.7 4.3 0.00 0.00 0.00 81 1013.2
20260831042218 84 171 1.7 4.3 0.00 0.00 0.00 81 1013.3
20260831042119 84 109 1.7 5.2 0.00 0.00 0.00 81 1013.2
20260831042018 84 185 1.7 5.2 0.00 0.00 0.00 81 1013.2
20260831041918 84 176 2.6 5.2 0.00 0.00 0.00 81 1013.2
20260831041819 84 165 2.6 5.2 0.00 0.00 0.00 81 1013.1
20260831041719 84 157 2.6 5.2 0.00 0.00 0.00 81 1013.2
20260831041618 84 151 3.5 5.2 0.00 0.00 0.00 81 1013.2
20260831041519 84 165 2.6 5.2 0.00 0.00 0.00 81 1013.2
20260831041420 84 116 1.7 5.2 0.00 0.00 0.00 81 1013.2
20260831041318 84 135 1.7 5.2 0.00 0.00 0.00 81 1013.2
20260831041219 84 172 2.6 5.2 0.00 0.00 0.00 81 1013.2
20260831041119 84 127 2.6 5.2 0.00 0.00 0.00 81 1013.2
20260831041019 84 176 2.6 5.2 0.00 0.00 0.00 81 1013.2
20260831040918 84 104 2.6 5.2 0.00 0.00 0.00 81 1013.2
20260831040819 84 125 2.6 5.2 0.00 0.00 0.00 80 1013.2
20260831040719 84 168 1.7 4.3 0.00 0.00 0.00 80 1013.2
20260831040617 84 245 1.7 5.2 0.00 0.00 0.00 80 1013.1
20260831040518 84 148 1.7 5.2 0.00 0.00 0.00 80 1013.2
20260831040419 84 162 0.9 5.2 0.00 0.00 0.00 80 1013.1
20260831040318 84 128 0.9 5.2 0.00 0.00 0.00 80 1013.2
20260831040217 84 120 0.9 5.2 0.00 0.00 0.00 80 1013.1
20260831040118 84 118 1.7 5.2 0.00 0.00 0.00 80 1013.1
20260831040020 84 197 2.6 5.2 0.00 0.00 0.00 80 1013.1
20260831035917 84 141 2.6 5.2 0.00 0.00 0.00 80 1013.1
20260831035818 84 180 2.6 5.2 0.00 0.00 0.00 80 1013.1
20260831035719 84 169 1.7 5.2 0.00 0.00 0.00 80 1013.1
20260831035618 84 165 1.7 4.3 0.00 0.00 0.00 80 1013.1
20260831035518 84 195 0.9 4.3 0.00 0.00 0.00 80 1013.1
20260831035417 84 152 0.9 4.3 0.00 0.00 0.00 80 1013.1
20260831035317 84 183 1.7 4.3 0.00 0.00 0.00 79 1013.1
20260831035218 84 147 1.7 4.3 0.00 0.00 0.00 79 1013.1
20260831035118 84 135 1.7 4.3 0.00 0.00 0.00 79 1013.1
20260831035018 84 110 2.6 4.3 0.00 0.00 0.00 79 1013.0
20260831034918 84 195 2.6 4.3 0.00 0.00 0.00 79 1013.0
20260831034818 84 145 1.7 4.3 0.00 0.00 0.00 79 1013.0
20260831034718 84 186 1.7 4.3 0.00 0.00 0.00 79 1012.9
20260831034617 84 165 0.9 4.3 0.00 0.00 0.00 79 1013.0
20260831034519 84 116 0.9 3.5 0.00 0.00 0.00 79 1013.0
20260831034418 84 188 1.7 3.5 0.00 0.00 0.00 79 1013.0
20260831034319 84 190 0.9 3.5 0.00 0.00 0.00 79 1012.9
20260831034218 84 128 0.0 3.5 0.00 0.00 0.00 79 1013.0
20260831034117 84 140 0.0 3.5 0.00 0.00 0.00 79 1013.0
20260831034019 84 140 0.9 3.5 0.00 0.00 0.00 79 1013.0
20260831033918 84 138 0.9 3.5 0.00 0.00 0.00 79 1013.0
20260831033817 84 176 1.7 3.5 0.00 0.00 0.00 79 1012.9
20260831033717 84 166 0.0 3.5 0.00 0.00 0.00 79 1013.0
20260831033619 84 166 0.0 3.5 0.00 0.00 0.00 79 1013.0
20260831033517 84 166 0.0 3.5 0.00 0.00 0.00 79 1013.0
20260831033416 84 166 0.0 3.5 0.00 0.00 0.00 79 1013.0
20260831033318 84 168 0.0 3.5 0.00 0.00 0.00 78 1012.9
20260831033216 84 168 0.9 3.5 0.00 0.00 0.00 78 1012.9
20260831033118 84 171 1.7 3.5 0.00 0.00 0.00 78 1012.9
20260831033017 85 171 1.7 3.5 0.00 0.00 0.00 78 1012.9
20260831032919 85 100 0.9 5.2 0.00 0.00 0.00 78 1013.0
20260831032816 85 148 0.9 5.2 0.00 0.00 0.00 78 1012.9
20260831032717 85 149 1.7 5.2 0.00 0.00 0.00 78 1013.0
20260831032618 85 162 1.7 5.2 0.00 0.00 0.00 78 1012.9
20260831032516 85 168 1.7 5.2 0.00 0.00 0.00 78 1013.0
20260831032417 85 145 0.9 5.2 0.00 0.00 0.00 78 1012.9
20260831032316 85 142 0.9 5.2 0.00 0.00 0.00 78 1012.9
20260831032218 85 154 1.7 5.2 0.00 0.00 0.00 78 1012.8
20260831032117 85 173 1.7 5.2 0.00 0.00 0.00 78 1012.9
20260831032017 85 158 1.7 5.2 0.00 0.00 0.00 78 1012.8
20260831031919 85 141 1.7 5.2 0.00 0.00 0.00 78 1012.9
20260831031817 85 154 2.6 5.2 0.00 0.00 0.00 77 1012.8
20260831031719 85 147 1.7 5.2 0.00 0.00 0.00 77 1012.8
20260831031619 85 93 1.7 5.2 0.00 0.00 0.00 77 1012.9
20260831031517 85 128 1.7 5.2 0.00 0.00 0.00 77 1012.8
20260831031417 85 145 1.7 5.2 0.00 0.00 0.00 77 1012.9
20260831031316 85 152 1.7 6.1 0.00 0.00 0.00 77 1012.8
20260831031217 85 123 2.6 6.1 0.00 0.00 0.00 77 1012.9
20260831031118 85 164 3.5 6.1 0.00 0.00 0.00 77 1012.8
20260831031016 85 148 3.5 6.1 0.00 0.00 0.00 76 1012.8
20260831030916 85 113 2.6 6.1 0.00 0.00 0.00 76 1012.8
20260831030818 85 137 1.7 6.1 0.00 0.00 0.00 76 1012.7
20260831030717 85 135 2.6 6.1 0.00 0.00 0.00 76 1012.7
20260831030617 85 189 3.5 6.1 0.00 0.00 0.00 76 1012.8
20260831030518 85 152 3.5 7.8 0.00 0.00 0.00 76 1012.8
20260831030416 86 165 2.6 8.7 0.00 0.00 0.00 76 1012.7
20260831030317 86 140 2.6 8.7 0.00 0.00 0.00 75 1012.6
20260831030217 86 151 2.6 8.7 0.00 0.00 0.00 75 1012.6
20260831030117 86 159 1.7 8.7 0.00 0.00 0.00 75 1012.6
20260831030017 86 134 2.6 9.6 0.00 0.00 0.00 75 1012.6
20260831025917 86 151 3.5 9.6 0.00 0.00 0.00 75 1012.6
20260831025818 86 169 4.3 9.6 0.00 0.00 0.00 75 1012.5
20260831025716 86 151 4.3 9.6 0.00 0.00 0.00 75 1012.6
20260831025618 86 162 4.3 9.6 0.00 0.00 0.00 75 1012.5
20260831025517 86 190 3.5 9.6 0.00 0.00 0.00 75 1012.5
20260831025417 86 196 3.5 9.6 0.00 0.00 0.00 74 1012.4
20260831025316 86 216 4.3 9.6 0.00 0.00 0.00 74 1012.4
20260831025216 86 173 5.2 9.6 0.00 0.00 0.00 74 1012.4
20260831025117 86 165 4.3 9.6 0.00 0.00 0.00 74 1012.4
20260831025016 86 200 5.2 9.6 0.00 0.00 0.00 74 1012.4
20260831024918 86 192 6.1 9.6 0.00 0.00 0.00 74 1012.4
20260831024818 86 111 5.2 9.6 0.00 0.00 0.00 74 1012.4
20260831024716 86 183 5.2 9.6 0.00 0.00 0.00 74 1012.3
20260831024616 86 227 4.3 9.6 0.00 0.00 0.00 74 1012.4
20260831024516 86 203 3.5 7.8 0.00 0.00 0.00 74 1012.4
20260831024417 86 145 3.5 7.8 0.00 0.00 0.00 74 1012.4
20260831024316 86 96 2.6 6.1 0.00 0.00 0.00 74 1012.5
20260831024218 86 221 2.6 6.1 0.00 0.00 0.00 74 1012.5
20260831024117 86 164 2.6 6.1 0.00 0.00 0.00 74 1012.4
20260831024017 86 155 2.6 6.1 0.00 0.00 0.00 73 1012.4
20260831023916 86 133 2.6 6.1 0.00 0.00 0.00 73 1012.4
20260831023815 86 149 2.6 6.1 0.00 0.00 0.00 73 1012.4
20260831023717 86 137 2.6 5.2 0.00 0.00 0.00 73 1012.3
20260831023617 86 113 2.6 5.2 0.00 0.00 0.00 73 1012.4
20260831023516 86 130 2.6 5.2 0.00 0.00 0.00 73 1012.4
20260831023416 86 134 3.5 5.2 0.00 0.00 0.00 73 1012.4
20260831023317 86 148 3.5 5.2 0.00 0.00 0.00 73 1012.4
20260831023216 86 107 1.7 5.2 0.00 0.00 0.00 72 1012.3
20260831023116 86 80 1.7 5.2 0.00 0.00 0.00 72 1012.2
20260831023017 86 134 3.5 5.2 0.00 0.00 0.00 72 1012.3
20260831022916 86 159 2.6 5.2 0.00 0.00 0.00 72 1012.2
20260831022815 86 154 2.6 5.2 0.00 0.00 0.00 72 1012.2
20260831022716 86 118 2.6 5.2 0.00 0.00 0.00 72 1012.2
20260831022616 86 144 2.6 5.2 0.00 0.00 0.00 71 1012.3
20260831022515 87 89 2.6 5.2 0.00 0.00 0.00 71 1012.2
20260831022415 86 133 2.6 5.2 0.00 0.00 0.00 71 1012.2
20260831022315 87 128 2.6 5.2 0.00 0.00 0.00 71 1012.2
20260831022216 87 158 3.5 5.2 0.00 0.00 0.00 71 1012.1
20260831022114 87 131 1.7 5.2 0.00 0.00 0.00 71 1012.2
20260831022011 87 148 0.9 6.1 0.00 0.00 0.00 71 1012.1
20260831021910 87 131 0.9 6.1 0.00 0.00 0.00 71 1012.0
20260831021809 87 130 1.7 6.1 0.00 0.00 0.00 70 1012.1
20260831021707 87 144 1.7 6.1 0.00 0.00 0.00 70 1012.1
20260831021605 87 125 1.7 6.1 0.00 0.00 0.00 70 1012.0
20260831021505 87 155 3.5 6.1 0.00 0.00 0.00 70 1011.9
20260831021403 87 214 2.6 6.1 0.00 0.00 0.00 70 1011.9
20260831021302 87 100 2.6 7.8 0.00 0.00 0.00 70 1011.9
20260831021202 87 166 3.5 7.8 0.00 0.00 0.00 70 1011.9
20260831021104 87 138 3.5 9.6 0.00 0.00 0.00 70 1011.8
20260831021003 87 172 3.5 9.6 0.00 0.00 0.00 70 1011.9
20260831020903 87 171 2.6 9.6 0.00 0.00 0.00 70 1011.8
20260831020803 87 148 2.6 9.6 0.00 0.00 0.00 70 1011.9
20260831020703 87 195 1.7 9.6 0.00 0.00 0.00 70 1011.9
20260831020602 87 207 2.6 9.6 0.00 0.00 0.00 69 1011.9
20260831020502 87 134 4.3 9.6 0.00 0.00 0.00 69 1011.9
20260831020403 87 173 5.2 9.6 0.00 0.00 0.00 69 1012.0
20260831020303 87 148 5.2 9.6 0.00 0.00 0.00 69 1011.9
20260831020202 87 134 4.3 9.6 0.00 0.00 0.00 69 1011.8
20260831020003 87 169 3.5 9.6 0.00 0.00 0.00 69 1011.8
20260831015901 87 99 3.5 7.8 0.00 0.00 0.00 69 1011.8
20260831015802 87 61 2.6 7.8 0.00 0.00 0.00 69 1011.8
20260831015703 88 99 2.6 7.8 0.00 0.00 0.00 68 1011.8
20260831015602 88 131 3.5 7.8 0.00 0.00 0.00 68 1011.8
20260831015503 88 182 3.5 7.8 0.00 0.00 0.00 68 1011.7
20260831015404 88 199 3.5 7.8 0.00 0.00 0.00 68 1011.8
20260831015305 88 165 3.5 7.8 0.00 0.00 0.00 68 1011.7
20260831015202 88 140 3.5 7.8 0.00 0.00 0.00 68 1011.7
20260831015103 88 186 3.5 7.8 0.00 0.00 0.00 67 1011.7
20260831015003 88 176 3.5 7.8 0.00 0.00 0.00 67 1011.7
20260831014902 88 97 3.5 7.8 0.00 0.00 0.00 67 1011.7
20260831014802 88 135 2.6 7.8 0.00 0.00 0.00 66 1011.7
20260831014703 88 192 3.5 7.8 0.00 0.00 0.00 66 1011.6
20260831014602 88 104 2.6 7.8 0.00 0.00 0.00 66 1011.6
20260831014502 88 138 3.5 7.8 0.00 0.00 0.00 66 1011.7
20260831014403 88 165 3.5 7.8 0.00 0.00 0.00 66 1011.6
20260831014303 88 102 3.5 7.8 0.00 0.00 0.00 65 1011.7
20260831014201 88 169 2.6 6.1 0.00 0.00 0.00 65 1011.6
20260831014102 88 113 2.6 6.1 0.00 0.00 0.00 65 1011.7
20260831014003 88 161 2.6 6.1 0.00 0.00 0.00 65 1011.7
20260831013903 88 172 2.6 6.1 0.00 0.00 0.00 65 1011.6
20260831013802 88 147 1.7 6.1 0.00 0.00 0.00 65 1011.7
20260831013702 88 203 1.7 6.1 0.00 0.00 0.00 64 1011.6
20260831013602 89 158 2.6 6.1 0.00 0.00 0.00 64 1011.6
20260831013500 89 131 3.5 6.1 0.00 0.00 0.00 64 1011.7
20260831013359 89 155 3.5 6.1 0.00 0.00 0.00 64 1011.6
20260831013258 89 189 2.6 7.8 0.00 0.00 0.00 64 1011.6
20260831013155 89 182 1.7 7.8 0.00 0.00 0.00 64 1011.6
20260831013054 89 100 2.6 7.8 0.00 0.00 0.00 64 1011.6
20260831012953 89 133 2.6 7.8 0.00 0.00 0.00 64 1011.6
20260831012852 89 137 3.5 7.8 0.00 0.00 0.00 64 1011.6
20260831012751 89 138 3.5 7.8 0.00 0.00 0.00 64 1011.5
20260831012648 89 161 3.5 7.8 0.00 0.00 0.00 64 1011.6
20260831012547 89 130 3.5 7.8 0.00 0.00 0.00 63 1011.5
20260831012443 89 152 4.3 7.8 0.00 0.00 0.00 63 1011.6
20260831012340 89 158 3.5 7.8 0.00 0.00 0.00 63 1011.5
20260831012238 89 134 2.6 4.3 0.00 0.00 0.00 63 1011.5
20260831012137 89 159 2.6 4.3 0.00 0.00 0.00 63 1011.6
20260831012037 89 144 2.6 5.2 0.00 0.00 0.00 63 1011.5
20260831011934 89 159 1.7 7.8 0.00 0.00 0.00 62 1011.6
20260831011834 89 121 0.9 7.8 0.00 0.00 0.00 62 1011.5
20260831011732 89 135 1.7 7.8 0.00 0.00 0.00 62 1011.6
20260831011631 89 138 1.7 7.8 0.00 0.00 0.00 62 1011.6
20260831011531 89 149 1.7 7.8 0.00 0.00 0.00 62 1011.5
20260831011431 89 149 1.7 7.8 0.00 0.00 0.00 61 1011.5
20260831011332 89 144 1.7 7.8 0.00 0.00 0.00 61 1011.6
20260831011232 89 109 3.5 7.8 0.00 0.00 0.00 61 1011.5
20260831011131 89 130 4.3 7.8 0.00 0.00 0.00 61 1011.5
20260831011030 89 135 1.7 7.8 0.00 0.00 0.00 60 1011.5
20260831010931 89 179 1.7 5.2 0.00 0.00 0.00 60 1011.5
20260831010831 89 141 2.6 5.2 0.00 0.00 0.00 60 1011.6
20260831010731 89 116 2.6 5.2 0.00 0.00 0.00 60 1011.5
20260831010632 89 104 2.6 5.2 0.00 0.00 0.00 60 1011.5
20260831010532 89 99 2.6 5.2 0.00 0.00 0.00 60 1011.5
20260831010432 90 141 2.6 5.2 0.00 0.00 0.00 60 1011.5
20260831010332 90 102 1.7 5.2 0.00 0.00 0.00 59 1011.5
20260831010231 90 133 1.7 7.8 0.00 0.00 0.00 59 1011.5
20260831010132 90 113 2.6 7.8 0.00 0.00 0.00 59 1011.5
20260831010032 90 140 3.5 7.8 0.00 0.00 0.00 59 1011.5
20260831005931 90 94 3.5 7.8 0.00 0.00 0.00 59 1011.4
20260831005832 90 103 3.5 7.8 0.00 0.00 0.00 58 1011.4
20260831005732 90 124 3.5 7.8 0.00 0.00 0.00 58 1011.4
20260831005631 90 123 3.5 11.3 0.00 0.00 0.00 58 1011.4
20260831005533 90 80 3.5 11.3 0.00 0.00 0.00 58 1011.4
20260831005431 90 128 3.5 11.3 0.00 0.00 0.00 58 1011.4
20260831005331 90 110 3.5 11.3 0.00 0.00 0.00 57 1011.4
20260831005230 90 103 3.5 11.3 0.00 0.00 0.00 57 1011.4
20260831005132 90 121 2.6 11.3 0.00 0.00 0.00 57 1011.4
20260831005032 91 94 2.6 11.3 0.00 0.00 0.00 57 1011.3
20260831004931 91 128 3.5 11.3 0.00 0.00 0.00 57 1011.4
20260831004832 91 145 5.2 11.3 0.00 0.00 0.00 57 1011.4
20260831004732 91 151 5.2 11.3 0.00 0.00 0.00 56 1011.4
20260831004631 91 114 3.5 8.7 0.00 0.00 0.00 56 1011.4
20260831004531 91 116 2.6 8.7 0.00 0.00 0.00 56 1011.4
20260831004431 91 83 3.5 8.7 0.00 0.00 0.00 56 1011.4
20260831004331 91 135 5.2 8.7 0.00 0.00 0.00 56 1011.3
20260831004231 91 109 3.5 8.7 0.00 0.00 0.00 55 1011.4
20260831004132 91 100 3.5 7.8 0.00 0.00 0.00 55 1011.4
20260831004031 91 164 4.3 7.8 0.00 0.00 0.00 55 1011.4
20260831003931 91 104 4.3 9.6 0.00 0.00 0.00 55 1011.4
20260831003832 91 117 3.5 9.6 0.00 0.00 0.00 55 1011.4
20260831003731 91 133 3.5 9.6 0.00 0.00 0.00 54 1011.4
20260831003631 91 110 3.5 10.4 0.00 0.00 0.00 54 1011.4
20260831003531 91 124 3.5 10.4 0.00 0.00 0.00 54 1011.4
20260831003431 91 106 4.3 10.4 0.00 0.00 0.00 54 1011.4
20260831003332 92 116 4.3 10.4 0.00 0.00 0.00 53 1011.4
20260831003232 92 97 4.3 10.4 0.00 0.00 0.00 53 1011.4
20260831003132 92 148 6.1 10.4 0.00 0.00 0.00 53 1011.4
20260831003032 92 107 6.1 10.4 0.00 0.00 0.00 52 1011.4
20260831002931 92 104 4.3 10.4 0.00 0.00 0.00 52 1011.3
20260831002833 92 111 5.2 10.4 0.00 0.00 0.00 51 1011.4
20260831002732 92 127 4.3 10.4 0.00 0.00 0.00 51 1011.4
20260831002633 92 87 4.3 8.7 0.00 0.00 0.00 51 1011.4
20260831002531 92 128 3.5 9.6 0.00 0.00 0.00 51 1011.4
20260831002431 92 78 2.6 9.6 0.00 0.00 0.00 50 1011.4
20260831002332 92 99 4.3 9.6 0.00 0.00 0.00 49 1011.5
20260831002230 92 111 4.3 9.6 0.00 0.00 0.00 49 1011.4
20260831002128 92 113 4.3 9.6 0.00 0.00 0.00 49 1011.5
20260831002027 92 176 5.2 9.6 0.00 0.00 0.00 48 1011.5
20260831001924 92 102 4.3 10.4 0.00 0.00 0.00 49 1011.4
20260831001823 92 103 5.2 10.4 0.00 0.00 0.00 49 1011.4
20260831001719 92 140 6.1 10.4 0.00 0.00 0.00 49 1011.4
20260831001616 92 96 6.1 10.4 0.00 0.00 0.00 49 1011.4
20260831001517 92 118 6.1 10.4 0.00 0.00 0.00 49 1011.5
20260831001414 92 89 7.0 10.4 0.00 0.00 0.00 49 1011.4
20260831001313 93 131 7.0 10.4 0.00 0.00 0.00 49 1011.4
20260831001213 93 137 6.1 10.4 0.00 0.00 0.00 50 1011.5
20260831001113 93 104 5.2 10.4 0.00 0.00 0.00 50 1011.4
20260831001012 93 96 4.3 10.4 0.00 0.00 0.00 50 1011.4
20260831000913 93 116 4.3 10.4 0.00 0.00 0.00 50 1011.3
20260831000815 93 148 4.3 10.4 0.00 0.00 0.00 50 1011.4
20260831000713 93 161 4.3 10.4 0.00 0.00 0.00 51 1011.4
20260831000612 93 94 5.2 10.4 0.00 0.00 0.00 51 1011.4
20260831000512 93 94 4.3 10.4 0.00 0.00 0.00 51 1011.4
20260831000412 93 138 5.2 10.4 0.00 0.00 0.00 52 1011.3
20260831000312 93 148 5.2 12.2 0.00 0.00 0.00 52 1011.3
20260831000212 93 79 5.2 12.2 0.00 0.00 0.00 53 1011.3
20260831000114 93 106 5.2 12.2 0.00 0.00 0.00 53 1011.3
20260831000012 93 102 4.3 12.2 0.00 0.00 0.00 54 1011.3
20260830235912 93 176 3.5 12.2 0.00 0.00 0.00 54 1011.3
20260830235815 93 90 4.3 12.2 0.00 0.00 0.00 54 1011.4
20260830235712 93 151 5.2 12.2 0.00 0.00 0.00 54 1011.3
20260830235612 93 128 7.0 12.2 0.00 0.00 0.00 53 1011.4
20260830235512 93 102 8.7 12.2 0.00 0.00 0.00 54 1011.3
20260830235413 93 120 6.1 12.2 0.00 0.00 0.00 54 1011.3
20260830235313 93 117 5.2 12.2 0.00 0.00 0.00 54 1011.3
20260830235213 93 147 5.2 12.2 0.00 0.00 0.00 53 1011.3
20260830235113 93 96 4.3 12.2 0.00 0.00 0.00 54 1011.2
20260830235012 93 138 4.3 12.2 0.00 0.00 0.00 53 1011.3
20260830234912 93 120 6.1 12.2 0.00 0.00 0.00 53 1011.3
20260830234812 93 137 7.8 12.2 0.00 0.00 0.00 53 1011.2
20260830234715 93 80 7.0 12.2 0.00 0.00 0.00 53 1011.3
20260830234611 94 103 6.1 11.3 0.00 0.00 0.00 52 1011.3
20260830234511 94 124 7.0 11.3 0.00 0.00 0.00 51 1011.3
20260830234413 94 111 7.0 11.3 0.00 0.00 0.00 51 1011.3
20260830234313 94 123 5.2 10.4 0.00 0.00 0.00 50 1011.3
20260830234212 94 123 4.3 10.4 0.00 0.00 0.00 50 1011.3
20260830234113 94 117 4.3 10.4 0.00 0.00 0.00 50 1011.2
20260830234014 94 109 5.2 10.4 0.00 0.00 0.00 50 1011.2
20260830233913 94 152 5.2 10.4 0.00 0.00 0.00 50 1011.2
20260830233812 94 140 4.3 10.4 0.00 0.00 0.00 50 1011.2
20260830233713 94 120 4.3 10.4 0.00 0.00 0.00 50 1011.2
20260830233611 94 104 4.3 10.4 0.00 0.00 0.00 49 1011.2
20260830233511 95 195 3.5 10.4 0.00 0.00 0.00 49 1011.2
20260830233412 95 106 3.5 10.4 0.00 0.00 0.00 49 1011.1
20260830233313 95 89 4.3 10.4 0.00 0.00 0.00 48 1011.2
20260830233212 95 104 4.3 10.4 0.00 0.00 0.00 48 1011.2
20260830233111 95 141 6.1 10.4 0.00 0.00 0.00 48 1011.1
20260830233012 95 116 6.1 10.4 0.00 0.00 0.00 47 1011.2
20260830232912 95 80 4.3 10.4 0.00 0.00 0.00 48 1011.2
20260830232811 95 93 4.3 10.4 0.00 0.00 0.00 48 1011.2
20260830232712 95 137 4.3 13.9 0.00 0.00 0.00 48 1011.2
20260830232613 95 100 4.3 13.9 0.00 0.00 0.00 48 1011.3
20260830232512 95 196 5.2 13.9 0.00 0.00 0.00 48 1011.3
20260830232412 95 96 4.3 13.9 0.00 0.00 0.00 49 1011.3
20260830232312 95 73 4.3 13.9 0.00 0.00 0.00 50 1011.2
20260830232212 95 100 5.2 13.9 0.00 0.00 0.00 50 1011.3
20260830232111 95 128 5.2 13.9 0.00 0.00 0.00 51 1011.2
20260830232011 95 135 5.2 13.9 0.00 0.00 0.00 51 1011.2
20260830231912 95 117 6.1 13.9 0.00 0.00 0.00 51 1011.2
20260830231811 95 154 6.1 13.9 0.00 0.00 0.00 51 1011.2
20260830231711 95 186 3.5 9.6 0.00 0.00 0.00 52 1011.1
20260830231612 95 104 3.5 9.6 0.00 0.00 0.00 52 1011.1
20260830231512 95 121 3.5 12.2 0.00 0.00 0.00 53 1011.1
20260830231411 95 161 5.2 12.2 0.00 0.00 0.00 53 1011.2
20260830231312 95 80 5.2 12.2 0.00 0.00 0.00 53 1011.1
20260830231212 95 103 5.2 12.2 0.00 0.00 0.00 52 1011.2
20260830231112 95 86 5.2 12.2 0.00 0.00 0.00 52 1011.1
20260830231012 95 100 4.3 12.2 0.00 0.00 0.00 52 1011.2
20260830230912 95 241 5.2 12.2 0.00 0.00 0.00 52 1011.2
20260830230811 95 106 6.1 12.2 0.00 0.00 0.00 52 1011.2
20260830230712 95 107 7.8 12.2 0.00 0.00 0.00 52 1011.3
20260830230612 95 92 7.8 12.2 0.00 0.00 0.00 52 1011.3
20260830230511 95 96 5.2 11.3 0.00 0.00 0.00 52 1011.2
20260830230411 95 107 4.3 9.6 0.00 0.00 0.00 52 1011.2
20260830230311 95 110 4.3 9.6 0.00 0.00 0.00 52 1011.2
20260830230213 95 116 5.2 9.6 0.00 0.00 0.00 51 1011.3
20260830230111 95 121 6.1 9.6 0.00 0.00 0.00 51 1011.2
20260830230010 96 113 4.3 9.6 0.00 0.00 0.00 51 1011.3
20260830225911 96 120 4.3 9.6 0.00 0.00 0.00 52 1011.2
20260830225810 96 148 4.3 9.6 0.00 0.00 0.00 51 1011.2
20260830225711 96 131 4.3 9.6 0.00 0.00 0.00 51 1011.2
20260830225611 96 89 5.2 9.6 0.00 0.00 0.00 51 1011.1
20260830225512 96 114 6.1 9.6 0.00 0.00 0.00 51 1011.3
20260830225411 96 99 6.1 9.6 0.00 0.00 0.00 51 1011.2
20260830225312 96 120 5.2 9.6 0.00 0.00 0.00 50 1011.2
20260830225212 96 190 4.3 9.6 0.00 0.00 0.00 50 1011.2
20260830225112 96 192 5.2 9.6 0.00 0.00 0.00 50 1011.1
20260830225012 96 149 5.2 9.6 0.00 0.00 0.00 50 1011.2
20260830224912 96 123 5.2 9.6 0.00 0.00 0.00 50 1011.1
20260830224812 97 200 4.3 8.7 0.00 0.00 0.00 51 1011.2
20260830224711 97 117 3.5 8.7 0.00 0.00 0.00 51 1011.2
20260830224610 97 155 3.5 8.7 0.00 0.00 0.00 50 1011.2
20260830224511 96 162 3.5 8.7 0.00 0.00 0.00 50 1011.2
20260830224411 97 100 3.5 8.7 0.00 0.00 0.00 50 1011.2
20260830224310 97 87 3.5 8.7 0.00 0.00 0.00 50 1011.2
20260830224211 97 120 2.6 10.4 0.00 0.00 0.00 50 1011.1
20260830224112 97 162 3.5 10.4 0.00 0.00 0.00 49 1011.2
20260830224010 97 182 3.5 10.4 0.00 0.00 0.00 50 1011.2
20260830223910 97 158 4.3 10.4 0.00 0.00 0.00 50 1011.2
20260830223811 97 109 3.5 11.3 0.00 0.00 0.00 50 1011.2
20260830223711 97 114 3.5 11.3 0.00 0.00 0.00 50 1011.1
20260830223611 96 87 3.5 11.3 0.00 0.00 0.00 49 1011.2
20260830223510 96 144 3.5 11.3 0.00 0.00 0.00 50 1011.2
20260830223412 96 185 5.2 11.3 0.00 0.00 0.00 50 1011.1
20260830223310 96 154 6.1 11.3 0.00 0.00 0.00 50 1011.1
20260830223210 96 116 5.2 11.3 0.00 0.00 0.00 50 1011.1
20260830223112 96 92 5.2 11.3 0.00 0.00 0.00 50 1011.1
20260830223010 97 137 7.8 11.3 0.00 0.00 0.00 50 1011.2
20260830222910 97 117 7.8 11.3 0.00 0.00 0.00 50 1011.1
20260830222811 97 92 5.2 11.3 0.00 0.00 0.00 49 1011.1
20260830222712 97 149 3.5 8.7 0.00 0.00 0.00 50 1011.1
20260830222611 97 73 3.5 8.7 0.00 0.00 0.00 50 1011.1
20260830222510 97 133 3.5 8.7 0.00 0.00 0.00 50 1011.1
20260830222412 97 65 3.5 8.7 0.00 0.00 0.00 50 1011.1
20260830222310 97 182 3.5 8.7 0.00 0.00 0.00 50 1011.1
20260830222211 97 138 4.3 8.7 0.00 0.00 0.00 49 1011.1
20260830222111 97 142 4.3 8.7 0.00 0.00 0.00 49 1011.1
20260830222010 98 109 5.2 9.6 0.00 0.00 0.00 49 1011.2
20260830221909 97 147 6.1 9.6 0.00 0.00 0.00 49 1011.1
20260830221810 98 92 5.2 9.6 0.00 0.00 0.00 48 1011.2
20260830221710 98 87 5.2 9.6 0.00 0.00 0.00 49 1011.1
20260830221610 98 107 4.3 9.6 0.00 0.00 0.00 49 1011.2
20260830221509 98 113 3.5 9.6 0.00 0.00 0.00 49 1011.1
20260830221411 98 130 4.3 9.6 0.00 0.00 0.00 49 1011.1
20260830221311 98 130 4.3 12.2 0.00 0.00 0.00 49 1011.1
20260830221211 98 130 4.3 12.2 0.00 0.00 0.00 49 1011.1
20260830221111 98 130 4.3 12.2 0.00 0.00 0.00 49 1011.1
20260830221012 98 106 3.5 12.2 0.00 0.00 0.00 48 1011.2
20260830220910 98 114 3.5 12.2 0.00 0.00 0.00 48 1011.1
20260830220809 98 166 4.3 12.2 0.00 0.00 0.00 48 1011.1
20260830220710 98 152 4.3 12.2 0.00 0.00 0.00 48 1011.2
20260830220611 97 123 4.3 12.2 0.00 0.00 0.00 49 1011.1
20260830220510 97 90 7.8 12.2 0.00 0.00 0.00 48 1011.2
20260830220411 97 109 7.8 12.2 0.00 0.00 0.00 48 1011.2
20260830220311 98 113 6.1 10.4 0.00 0.00 0.00 47 1011.2
20260830220209 98 116 5.2 10.4 0.00 0.00 0.00 48 1011.1
20260830220109 98 55 3.5 10.4 0.00 0.00 0.00 48 1011.1
20260830220009 98 113 4.3 10.4 0.00 0.00 0.00 49 1011.1
20260830215909 97 142 4.3 10.4 0.00 0.00 0.00 49 1011.0
20260830215810 97 120 6.1 11.3 0.00 0.00 0.00 48 1011.0
20260830215710 97 125 7.8 11.3 0.00 0.00 0.00 48 1011.0
20260830215611 97 90 7.8 11.3 0.00 0.00 0.00 48 1011.0
20260830215509 97 125 6.1 11.3 0.00 0.00 0.00 48 1011.1
20260830215409 97 104 5.2 11.3 0.00 0.00 0.00 49 1011.0
20260830215311 97 165 7.0 11.3 0.00 0.00 0.00 49 1011.0
20260830215210 97 96 7.0 11.3 0.00 0.00 0.00 49 1011.1
20260830215110 97 103 7.0 11.3 0.00 0.00 0.00 49 1011.1
20260830215009 97 118 7.0 11.3 0.00 0.00 0.00 49 1011.1
20260830214910 97 130 5.2 11.3 0.00 0.00 0.00 49 1011.2
20260830214809 97 102 4.3 8.7 0.00 0.00 0.00 50 1011.1
20260830214709 97 183 6.1 8.7 0.00 0.00 0.00 50 1011.1
20260830214610 97 111 5.2 8.7 0.00 0.00 0.00 50 1011.1
20260830214509 97 109 5.2 8.7 0.00 0.00 0.00 50 1011.2
20260830214408 97 83 4.3 8.7 0.00 0.00 0.00 50 1011.2
20260830214307 97 106 3.5 9.6 0.00 0.00 0.00 50 1011.2
20260830214204 97 134 3.5 12.2 0.00 0.00 0.00 50 1011.2
20260830214103 98 109 7.0 12.2 0.00 0.00 0.00 49 1011.2
20260830214004 98 109 7.0 12.2 0.00 0.00 0.00 49 1011.2
20260830213903 98 109 7.0 12.2 0.00 0.00 0.00 49 1011.2
20260830213803 98 109 7.0 13.9 0.00 0.00 0.00 49 1011.2
20260830213704 98 109 7.0 13.9 0.00 0.00 0.00 49 1011.3
20260830213603 98 109 7.0 13.9 0.00 0.00 0.00 49 1011.3
20260830213505 98 109 7.0 13.9 0.00 0.00 0.00 49 1011.3
20260830213403 98 109 7.0 13.9 0.00 0.00 0.00 49 1011.3
20260830213302 98 121 7.0 13.9 0.00 0.00 0.00 49 1011.3
20260830213202 98 107 7.8 13.9 0.00 0.00 0.00 49 1011.4
20260830213104 98 110 7.8 13.9 0.00 0.00 0.00 48 1011.4
20260830213002 98 123 7.8 13.9 0.00 0.00 0.00 48 1011.3
20260830212902 98 117 7.8 13.9 0.00 0.00 0.00 48 1011.3
20260830212802 98 100 5.2 13.0 0.00 0.00 0.00 47 1011.4
20260830212702 98 123 3.5 6.1 0.00 0.00 0.00 46 1011.4
20260830212602 98 86 2.6 5.2 0.00 0.00 0.00 46 1011.4
20260830212502 98 162 3.5 5.2 0.00 0.00 0.00 48 1011.3
20260830212402 97 137 3.5 5.2 0.00 0.00 0.00 48 1011.4
20260830212305 97 133 3.5 5.2 0.00 0.00 0.00 48 1011.4
20260830212202 97 145 3.5 5.2 0.00 0.00 0.00 48 1011.4
20260830212103 97 169 2.6 6.1 0.00 0.00 0.00 47 1011.4
20260830212003 97 134 2.6 6.1 0.00 0.00 0.00 48 1011.4
20260830211901 97 138 2.6 6.1 0.00 0.00 0.00 47 1011.4
20260830211759 98 149 2.6 6.1 0.00 0.00 0.00 47 1011.4
20260830211657 98 161 1.7 6.1 0.00 0.00 0.00 47 1011.5
20260830211555 98 141 2.6 6.1 0.00 0.00 0.00 47 1011.5
20260830211455 98 166 3.5 6.1 0.00 0.00 0.00 47 1011.6
20260830211353 98 141 3.5 9.6 0.00 0.00 0.00 47 1011.5
20260830211252 98 104 3.5 9.6 0.00 0.00 0.00 47 1011.5
20260830211149 98 180 3.5 9.6 0.00 0.00 0.00 47 1011.6
20260830211048 98 169 3.5 9.6 0.00 0.00 0.00 47 1011.5
20260830210947 98 125 4.3 9.6 0.00 0.00 0.00 47 1011.6
20260830210847 98 125 3.5 11.3 0.00 0.00 0.00 47 1011.6
20260830210746 98 107 3.5 12.2 0.00 0.00 0.00 47 1011.6
20260830210645 98 90 4.3 12.2 0.00 0.00 0.00 47 1011.6
20260830210543 98 175 5.2 12.2 0.00 0.00 0.00 46 1011.7
20260830210442 98 151 3.5 12.2 0.00 0.00 0.00 47 1011.6
20260830210338 98 109 3.5 12.2 0.00 0.00 0.00 46 1011.7
20260830210238 98 149 3.5 12.2 0.00 0.00 0.00 47 1011.7
20260830210135 99 106 5.2 12.2 0.00 0.00 0.00 46 1011.7
20260830210033 99 120 7.8 12.2 0.00 0.00 0.00 46 1011.7
20260830205931 99 121 7.8 12.2 0.00 0.00 0.00 46 1011.8
20260830205830 100 118 5.2 9.6 0.00 0.00 0.00 45 1011.8
20260830205730 100 176 5.2 9.6 0.00 0.00 0.00 45 1011.8
20260830205632 100 161 3.5 7.8 0.00 0.00 0.00 45 1011.8
20260830205532 100 230 1.7 7.8 0.00 0.00 0.00 46 1011.8
20260830205431 100 171 1.7 7.8 0.00 0.00 0.00 46 1011.8
20260830205331 100 137 2.6 9.6 0.00 0.00 0.00 46 1011.8
20260830205231 100 243 3.5 9.6 0.00 0.00 0.00 46 1011.7
20260830205132 99 148 3.5 9.6 0.00 0.00 0.00 45 1011.8
20260830205031 99 110 3.5 11.3 0.00 0.00 0.00 45 1011.8
20260830204933 100 175 3.5 11.3 0.00 0.00 0.00 45 1011.8
20260830204831 100 188 4.3 11.3 0.00 0.00 0.00 46 1011.8
20260830204731 100 202 4.3 11.3 0.00 0.00 0.00 46 1011.9
20260830204631 100 248 3.5 11.3 0.00 0.00 0.00 46 1011.9
20260830204532 100 238 4.3 11.3 0.00 0.00 0.00 46 1011.9
20260830204432 100 185 5.2 11.3 0.00 0.00 0.00 46 1011.8
20260830204332 100 196 5.2 11.3 0.00 0.00 0.00 46 1011.9
20260830204233 100 213 7.0 11.3 0.00 0.00 0.00 46 1011.9
20260830204131 100 195 6.1 11.3 0.00 0.00 0.00 46 1012.0
20260830204030 100 202 5.2 8.7 0.00 0.00 0.00 47 1012.0
20260830203931 99 179 4.3 8.7 0.00 0.00 0.00 46 1011.9
20260830203831 99 134 3.5 8.7 0.00 0.00 0.00 46 1012.0
20260830203731 99 151 4.3 7.8 0.00 0.00 0.00 46 1012.0
20260830203630 99 128 4.3 7.8 0.00 0.00 0.00 47 1012.1
20260830203531 98 127 3.5 8.7 0.00 0.00 0.00 46 1012.1
20260830203431 99 111 2.6 8.7 0.00 0.00 0.00 45 1012.1
20260830203330 99 79 2.6 8.7 0.00 0.00 0.00 46 1012.1
20260830203228 99 161 3.5 8.7 0.00 0.00 0.00 46 1012.2
20260830203126 99 166 3.5 8.7 0.00 0.00 0.00 47 1012.2
20260830203024 99 135 3.5 8.7 0.00 0.00 0.00 46 1012.1
20260830202923 99 161 2.6 8.7 0.00 0.00 0.00 47 1012.2
20260830202818 99 125 3.5 8.7 0.00 0.00 0.00 47 1012.2
20260830202716 98 135 4.3 8.7 0.00 0.00 0.00 47 1012.2
20260830202616 99 159 4.3 8.7 0.00 0.00 0.00 47 1012.2
20260830202513 99 199 3.5 8.7 0.00 0.00 0.00 47 1012.3
20260830202412 99 142 4.3 8.7 0.00 0.00 0.00 47 1012.2
20260830202312 99 103 5.2 8.7 0.00 0.00 0.00 47 1012.3
20260830202212 100 96 4.3 8.7 0.00 0.00 0.00 46 1012.2
20260830202112 100 152 3.5 6.1 0.00 0.00 0.00 48 1012.2
20260830202009 99 202 3.5 7.8 0.00 0.00 0.00 47 1012.3
20260830201905 99 154 2.6 7.8 0.00 0.00 0.00 47 1012.2
20260830201808 99 121 2.6 7.8 0.00 0.00 0.00 48 1012.3
20260830201705 99 110 3.5 7.8 0.00 0.00 0.00 48 1012.3
20260830201605 99 152 2.6 7.8 0.00 0.00 0.00 47 1012.3
20260830201506 98 182 3.5 7.8 0.00 0.00 0.00 49 1012.3
20260830201407 98 151 3.5 7.8 0.00 0.00 0.00 48 1012.3
20260830201305 98 87 3.5 7.8 0.00 0.00 0.00 47 1012.3
20260830201206 98 111 4.3 7.8 0.00 0.00 0.00 47 1012.3
20260830201107 98 118 3.5 9.6 0.00 0.00 0.00 47 1012.3
20260830201005 98 124 0.9 9.6 0.00 0.00 0.00 47 1012.4
20260830200905 98 257 1.7 9.6 0.00 0.00 0.00 48 1012.3
20260830200808 98 233 3.5 9.6 0.00 0.00 0.00 47 1012.4
20260830200705 98 233 3.5 9.6 0.00 0.00 0.00 48 1012.4
20260830200605 98 283 2.6 9.6 0.00 0.00 0.00 48 1012.4
20260830200505 98 210 3.5 9.6 0.00 0.00 0.00 48 1012.4
20260830200407 98 230 6.1 9.6 0.00 0.00 0.00 48 1012.4
20260830200305 98 248 7.0 9.6 0.00 0.00 0.00 49 1012.5
20260830200206 98 231 7.8 9.6 0.00 0.00 0.00 49 1012.5
20260830200105 98 244 6.1 9.6 0.00 0.00 0.00 48 1012.5
20260830200005 98 241 5.2 9.6 0.00 0.00 0.00 48 1012.5
20260830195905 98 195 5.2 9.6 0.00 0.00 0.00 49 1012.6
20260830195805 98 257 6.1 9.6 0.00 0.00 0.00 49 1012.6
20260830195707 98 250 6.1 9.6 0.00 0.00 0.00 48 1012.6
20260830195604 98 235 5.2 9.6 0.00 0.00 0.00 48 1012.6
20260830195504 99 250 5.2 9.6 0.00 0.00 0.00 48 1012.6
20260830195405 99 241 2.6 9.6 0.00 0.00 0.00 49 1012.6
20260830195305 98 114 1.7 6.1 0.00 0.00 0.00 49 1012.6
20260830195204 98 113 3.5 7.8 0.00 0.00 0.00 48 1012.5
20260830195104 98 286 5.2 7.8 0.00 0.00 0.00 48 1012.7
20260830195007 99 224 3.5 7.8 0.00 0.00 0.00 49 1012.6
20260830194903 98 235 1.7 7.8 0.00 0.00 0.00 50 1012.7
20260830194803 98 152 1.7 7.8 0.00 0.00 0.00 49 1012.7
20260830194701 98 193 1.7 7.8 0.00 0.00 0.00 49 1012.7
20260830194601 98 157 2.6 7.8 0.00 0.00 0.00 49 1012.7
20260830194503 98 188 3.5 7.8 0.00 0.00 0.00 51 1012.8
20260830194402 97 100 5.2 7.8 0.00 0.00 0.00 50 1012.8
20260830194302 98 111 4.3 7.8 0.00 0.00 0.00 50 1012.8
20260830194203 98 99 3.5 7.8 0.00 0.00 0.00 49 1012.9
20260830194102 98 144 3.5 7.8 0.00 0.00 0.00 49 1012.8
20260830194004 98 151 3.5 7.8 0.00 0.00 0.00 50 1012.9
20260830193903 98 182 3.5 6.1 0.00 0.00 0.00 50 1012.9
20260830193804 97 233 4.3 8.7 0.00 0.00 0.00 50 1012.9
20260830193702 98 240 4.3 8.7 0.00 0.00 0.00 49 1012.9
20260830193602 98 262 3.5 8.7 0.00 0.00 0.00 49 1013.0
20260830193504 98 233 3.5 8.7 0.00 0.00 0.00 49 1013.0
20260830193404 98 238 2.6 8.7 0.00 0.00 0.00 50 1013.1
20260830193303 98 4 1.7 8.7 0.00 0.00 0.00 49 1013.1
20260830193204 98 110 4.3 8.7 0.00 0.00 0.00 49 1013.1
20260830193103 98 110 4.3 8.7 0.00 0.00 0.00 49 1013.1
20260830193004 98 110 4.3 8.7 0.00 0.00 0.00 49 1013.1
20260830192903 98 97 3.5 8.7 0.00 0.00 0.00 49 1013.2
20260830192804 98 96 3.5 8.7 0.00 0.00 0.00 50 1013.2
20260830192702 98 175 3.5 8.7 0.00 0.00 0.00 49 1013.2
20260830192602 98 93 2.6 8.7 0.00 0.00 0.00 50 1013.3
20260830192503 98 202 4.3 8.7 0.00 0.00 0.00 50 1013.2
20260830192403 98 165 5.2 8.7 0.00 0.00 0.00 50 1013.2
20260830192305 98 152 3.5 8.7 0.00 0.00 0.00 51 1013.3
20260830192202 97 106 3.5 7.8 0.00 0.00 0.00 51 1013.3
20260830192104 97 276 3.5 7.8 0.00 0.00 0.00 50 1013.3
20260830192001 97 262 3.5 7.8 0.00 0.00 0.00 50 1013.3
20260830191903 98 279 4.3 7.8 0.00 0.00 0.00 50 1013.3
20260830191804 98 245 5.2 7.8 0.00 0.00 0.00 50 1013.3